KC5DAQ-25 Weather Reports


Display with metric or nautical units.
time (UTC)temp
F
wind
direction
speed
MPH
gust
MPH
rain 1hr
in
rain 24hr
in
rain mn
in
humidity
%
barometer
mb
20260901222859 90 92 1.0 5.0 0.00 0.00 0.00 63 1004.8
20260901222758 90 93 1.0 5.0 0.00 0.00 0.00 63 1004.8
20260901222659 91 334 1.0 5.0 0.00 0.00 0.00 62 1004.8
20260901222600 91 7 1.0 5.0 0.00 0.00 0.00 62 1004.9
20260901222500 92 63 2.0 5.0 0.00 0.00 0.00 61 1004.8
20260901222359 92 79 2.0 5.0 0.00 0.00 0.00 61 1004.8
20260901222258 92 41 2.0 5.0 0.00 0.00 0.00 61 1004.8
20260901222200 92 99 1.0 4.0 0.00 0.00 0.00 61 1004.6
20260901222100 92 137 0.0 2.0 0.00 0.00 0.00 61 1004.6
20260901221958 92 137 0.0 2.0 0.00 0.00 0.00 61 1004.6
20260901221900 93 298 0.0 2.0 0.00 0.00 0.00 61 1004.5
20260901221759 93 173 0.0 2.0 0.00 0.00 0.00 61 1004.5
20260901221700 93 200 0.0 2.0 0.00 0.00 0.00 61 1004.5
20260901221558 93 202 0.0 2.0 0.00 0.00 0.00 60 1004.5
20260901221458 93 202 1.0 2.0 0.00 0.00 0.00 61 1004.4
20260901221358 93 161 0.0 2.0 0.00 0.00 0.00 60 1004.5
20260901221258 93 59 0.0 1.0 0.00 0.00 0.00 60 1004.4
20260901221200 93 59 0.0 1.0 0.00 0.00 0.00 60 1004.4
20260901221058 93 59 0.0 1.0 0.00 0.00 0.00 59 1004.4
20260901220959 93 59 0.0 1.0 0.00 0.00 0.00 60 1004.4
20260901220859 93 59 0.0 1.0 0.00 0.00 0.00 60 1004.3
20260901220758 93 59 0.0 1.0 0.00 0.00 0.00 60 1004.4
20260901220659 93 59 0.0 1.0 0.00 0.00 0.00 60 1004.3
20260901220558 93 59 0.0 1.0 0.00 0.00 0.00 60 1004.3
20260901220458 93 58 0.0 1.0 0.00 0.00 0.00 61 1004.3
20260901220400 93 58 0.0 1.0 0.00 0.00 0.00 60 1004.3
20260901220257 93 58 0.0 3.0 0.00 0.00 0.00 61 1004.3
20260901220158 92 58 0.0 3.0 0.00 0.00 0.00 60 1004.3
20260901220058 92 58 0.0 3.0 0.00 0.00 0.00 60 1004.3
20260901215958 92 58 0.0 3.0 0.00 0.00 0.00 60 1004.3
20260901215858 93 56 0.0 3.0 0.00 0.00 0.00 59 1004.3
20260901215759 93 56 1.0 3.0 0.00 0.00 0.00 58 1004.3
20260901215657 93 56 0.0 3.0 0.00 0.00 0.00 58 1004.4
20260901215557 93 56 0.0 3.0 0.00 0.00 0.00 58 1004.4
20260901215459 93 58 0.0 3.0 0.00 0.00 0.00 58 1004.3
20260901215358 93 58 1.0 3.0 0.00 0.00 0.00 58 1004.4
20260901215257 93 104 0.0 1.0 0.00 0.00 0.00 58 1004.3
20260901215157 93 104 0.0 1.0 0.00 0.00 0.00 57 1004.4
20260901215057 93 104 0.0 1.0 0.00 0.00 0.00 57 1004.4
20260901214959 93 104 0.0 1.0 0.00 0.00 0.00 59 1004.4
20260901214858 93 104 0.0 1.0 0.00 0.00 0.00 59 1004.4
20260901214757 93 104 0.0 1.0 0.00 0.00 0.00 59 1004.3
20260901214659 93 104 0.0 1.0 0.00 0.00 0.00 59 1004.4
20260901214557 93 350 0.0 1.0 0.00 0.00 0.00 59 1004.4
20260901214457 93 350 0.0 1.0 0.00 0.00 0.00 60 1004.4
20260901214359 93 350 0.0 1.0 0.00 0.00 0.00 60 1004.5
20260901214257 93 350 0.0 1.0 0.00 0.00 0.00 60 1004.4
20260901214159 93 3 0.0 1.0 0.00 0.00 0.00 60 1004.4
20260901214058 93 3 0.0 1.0 0.00 0.00 0.00 59 1004.3
20260901213957 93 3 0.0 2.0 0.00 0.00 0.00 59 1004.3
20260901213857 93 3 0.0 2.0 0.00 0.00 0.00 59 1004.4
20260901213757 93 1 0.0 2.0 0.00 0.00 0.00 60 1004.3
20260901213657 93 1 0.0 2.0 0.00 0.00 0.00 59 1004.4
20260901213559 93 1 0.0 2.0 0.00 0.00 0.00 59 1004.4
20260901213459 93 0 1.0 2.0 0.00 0.00 0.00 59 1004.3
20260901213358 93 0 1.0 2.0 0.00 0.00 0.00 59 1004.4
20260901213257 93 1 1.0 2.0 0.00 0.00 0.00 59 1004.4
20260901213157 93 8 1.0 2.0 0.00 0.00 0.00 58 1004.4
20260901213057 93 8 1.0 3.0 0.00 0.00 0.00 58 1004.4
20260901212957 93 79 0.0 3.0 0.00 0.00 0.00 58 1004.4
20260901212900 93 65 0.0 3.0 0.00 0.00 0.00 58 1004.4
20260901212753 93 71 1.0 3.0 0.00 0.00 0.00 58 1004.4
20260901212652 94 274 0.0 3.0 0.00 0.00 0.00 58 1004.3
20260901212550 94 272 1.0 3.0 0.00 0.00 0.00 58 1004.3
20260901212445 94 274 1.0 3.0 0.00 0.00 0.00 58 1004.3
20260901212348 94 276 1.0 3.0 0.00 0.00 0.00 58 1004.4
20260901212243 94 276 1.0 3.0 0.00 0.00 0.00 58 1004.3
20260901212142 94 3 1.0 3.0 0.00 0.00 0.00 58 1004.4
20260901212044 94 3 1.0 3.0 0.00 0.00 0.00 59 1004.4
20260901211938 94 0 2.0 6.0 0.00 0.00 0.00 59 1004.4
20260901211832 94 125 1.0 6.0 0.00 0.00 0.00 60 1004.4
20260901211731 94 125 0.0 6.0 0.00 0.00 0.00 60 1004.4
20260901211632 94 125 1.0 6.0 0.00 0.00 0.00 60 1004.3
20260901211531 94 127 1.0 6.0 0.00 0.00 0.00 60 1004.3
20260901211431 94 85 0.0 6.0 0.00 0.00 0.00 60 1004.3
20260901211331 94 83 0.0 6.0 0.00 0.00 0.00 60 1004.3
20260901211232 94 86 1.0 6.0 0.00 0.00 0.00 60 1004.4
20260901211133 94 45 2.0 6.0 0.00 0.00 0.00 59 1004.4
20260901211032 94 65 2.0 6.0 0.00 0.00 0.00 59 1004.4
20260901210930 94 61 2.0 3.0 0.00 0.00 0.00 59 1004.5
20260901210832 94 93 1.0 3.0 0.00 0.00 0.00 58 1004.5
20260901210731 94 271 1.0 3.0 0.00 0.00 0.00 59 1004.5
20260901210627 94 300 2.0 3.0 0.00 0.00 0.00 59 1004.5
20260901210524 95 223 2.0 3.0 0.00 0.00 0.00 59 1004.5
20260901210423 95 14 1.0 3.0 0.00 0.00 0.00 59 1004.5
20260901210314 94 30 2.0 6.0 0.00 0.00 0.00 59 1004.5
20260901210204 94 32 1.0 6.0 0.00 0.00 0.00 60 1004.5
20260901210104 94 347 0.0 6.0 0.00 0.00 0.00 58 1004.5
20260901210005 94 347 0.0 6.0 0.00 0.00 0.00 58 1004.5
20260901205901 95 345 1.0 6.0 0.00 0.00 0.00 58 1004.4
20260901205803 95 357 1.0 6.0 0.00 0.00 0.00 58 1004.4
20260901205702 95 282 1.0 6.0 0.00 0.00 0.00 58 1004.5
20260901205603 95 189 2.0 6.0 0.00 0.00 0.00 58 1004.5
20260901205505 95 337 2.0 6.0 0.00 0.00 0.00 59 1004.5
20260901205405 95 169 1.0 3.0 0.00 0.00 0.00 59 1004.6
20260901205306 95 55 1.0 4.0 0.00 0.00 0.00 59 1004.5
20260901205203 94 55 2.0 4.0 0.00 0.00 0.00 59 1004.5
20260901205103 94 86 2.0 4.0 0.00 0.00 0.00 59 1004.5
20260901205004 94 30 1.0 4.0 0.00 0.00 0.00 59 1004.5
20260901204903 94 44 1.0 4.0 0.00 0.00 0.00 61 1004.5
20260901204802 94 144 1.0 4.0 0.00 0.00 0.00 61 1004.5
20260901204704 93 276 1.0 4.0 0.00 0.00 0.00 61 1004.5
20260901204603 93 178 1.0 4.0 0.00 0.00 0.00 61 1004.5
20260901204503 93 347 2.0 4.0 0.00 0.00 0.00 60 1004.5
20260901204402 93 292 2.0 4.0 0.00 0.00 0.00 61 1004.5
20260901204302 93 299 2.0 3.0 0.00 0.00 0.00 61 1004.6
20260901204204 93 274 2.0 3.0 0.00 0.00 0.00 61 1004.6
20260901204102 93 272 1.0 3.0 0.00 0.00 0.00 61 1004.7
20260901204003 93 271 1.0 3.0 0.00 0.00 0.00 61 1004.7
20260901203903 93 269 1.0 3.0 0.00 0.00 0.00 60 1004.7
20260901203803 93 269 2.0 3.0 0.00 0.00 0.00 60 1004.7
20260901203702 93 85 1.0 3.0 0.00 0.00 0.00 61 1004.8
20260901203604 93 66 0.0 3.0 0.00 0.00 0.00 60 1004.7
20260901203502 93 73 0.0 3.0 0.00 0.00 0.00 60 1004.7
20260901203402 93 73 0.0 3.0 0.00 0.00 0.00 60 1004.7
20260901203304 93 73 1.0 3.0 0.00 0.00 0.00 59 1004.8
20260901203203 93 75 1.0 3.0 0.00 0.00 0.00 59 1004.8
20260901203105 93 348 0.0 3.0 0.00 0.00 0.00 59 1004.7
20260901202956 93 348 1.0 3.0 0.00 0.00 0.00 59 1004.7
20260901202857 93 358 1.0 3.0 0.00 0.00 0.00 60 1004.8
20260901202757 93 45 1.0 3.0 0.00 0.00 0.00 59 1004.9
20260901202645 93 111 1.0 3.0 0.00 0.00 0.00 58 1004.9
20260901202545 93 316 2.0 3.0 0.00 0.00 0.00 58 1004.9
20260901202444 93 140 1.0 3.0 0.00 0.00 0.00 58 1005.0
20260901202339 93 310 1.0 3.0 0.00 0.00 0.00 58 1005.0
20260901202236 93 310 2.0 3.0 0.00 0.00 0.00 58 1005.0
20260901202138 93 90 1.0 3.0 0.00 0.00 0.00 58 1005.0
20260901202032 93 251 1.0 3.0 0.00 0.00 0.00 59 1005.1
20260901201932 93 250 1.0 3.0 0.00 0.00 0.00 59 1005.2
20260901201833 93 44 2.0 3.0 0.00 0.00 0.00 59 1005.3
20260901201732 93 4 2.0 3.0 0.00 0.00 0.00 59 1005.3
20260901201631 93 89 1.0 2.0 0.00 0.00 0.00 58 1005.3
20260901201533 93 93 1.0 2.0 0.00 0.00 0.00 58 1005.4
20260901201431 93 75 0.0 2.0 0.00 0.00 0.00 58 1005.4
20260901201332 93 83 0.0 2.0 0.00 0.00 0.00 60 1005.4
20260901201233 93 85 1.0 2.0 0.00 0.00 0.00 60 1005.4
20260901201131 93 0 0.0 2.0 0.00 0.00 0.00 57 1005.4
20260901201031 93 0 1.0 3.0 0.00 0.00 0.00 57 1005.5
20260901200936 94 0 1.0 3.0 0.00 0.00 0.00 57 1005.6
20260901200831 94 25 1.0 3.0 0.00 0.00 0.00 60 1005.6
20260901200733 94 149 0.0 3.0 0.00 0.00 0.00 62 1005.7
20260901200626 93 149 1.0 3.0 0.00 0.00 0.00 62 1005.6
20260901200519 93 148 1.0 3.0 0.00 0.00 0.00 61 1005.7
20260901200415 92 151 1.0 3.0 0.00 0.00 0.00 62 1005.7
20260901200316 92 166 1.0 3.0 0.00 0.00 0.00 62 1005.7
20260901200213 92 118 1.0 3.0 0.00 0.00 0.00 62 1005.7
20260901200108 92 118 1.0 3.0 0.00 0.00 0.00 63 1005.7
20260901200008 91 0 1.0 3.0 0.00 0.00 0.00 63 1005.8
20260901195903 91 316 1.0 3.0 0.00 0.00 0.00 63 1005.7
20260901195803 91 290 1.0 3.0 0.00 0.00 0.00 63 1005.8
20260901195702 91 285 1.0 3.0 0.00 0.00 0.00 63 1005.8
20260901195602 91 316 1.0 3.0 0.00 0.00 0.00 64 1005.8
20260901195502 91 80 1.0 3.0 0.00 0.00 0.00 65 1005.8
20260901195400 91 86 1.0 3.0 0.00 0.00 0.00 65 1005.8
20260901195258 90 343 0.0 3.0 0.00 0.00 0.00 65 1005.9
20260901195157 90 343 1.0 3.0 0.00 0.00 0.00 65 1005.9
20260901195056 90 347 1.0 3.0 0.00 0.00 0.00 65 1005.9
20260901194957 90 341 1.0 3.0 0.00 0.00 0.00 65 1006.0
20260901194854 90 71 1.0 2.0 0.00 0.00 0.00 65 1005.9
20260901194755 91 71 1.0 2.0 0.00 0.00 0.00 64 1006.0
20260901194655 91 71 1.0 2.0 0.00 0.00 0.00 64 1005.9
20260901194555 91 72 1.0 2.0 0.00 0.00 0.00 64 1005.9
20260901194457 91 72 0.0 2.0 0.00 0.00 0.00 64 1005.9
20260901194354 91 72 0.0 2.0 0.00 0.00 0.00 63 1005.9
20260901194258 91 72 0.0 2.0 0.00 0.00 0.00 64 1005.9
20260901194154 91 72 0.0 1.0 0.00 0.00 0.00 64 1005.8
20260901194057 91 73 0.0 1.0 0.00 0.00 0.00 65 1005.9
20260901193956 91 69 0.0 1.0 0.00 0.00 0.00 65 1005.9
20260901193855 91 79 0.0 1.0 0.00 0.00 0.00 64 1005.9
20260901193755 91 79 0.0 1.0 0.00 0.00 0.00 64 1005.9
20260901193657 91 79 0.0 1.0 0.00 0.00 0.00 65 1005.9
20260901193555 91 79 0.0 1.0 0.00 0.00 0.00 65 1005.9
20260901193456 90 79 0.0 2.0 0.00 0.00 0.00 66 1005.9
20260901193355 90 79 1.0 2.0 0.00 0.00 0.00 66 1005.9
20260901193258 90 79 0.0 2.0 0.00 0.00 0.00 66 1005.9
20260901193155 90 79 0.0 2.0 0.00 0.00 0.00 65 1006.0
20260901193057 90 79 0.0 2.0 0.00 0.00 0.00 67 1005.9
20260901192955 90 79 0.0 3.0 0.00 0.00 0.00 67 1006.0
20260901192854 90 79 0.0 3.0 0.00 0.00 0.00 67 1006.0
20260901192754 90 79 0.0 3.0 0.00 0.00 0.00 68 1005.9
20260901192654 90 79 1.0 3.0 0.00 0.00 0.00 68 1006.0
20260901192554 90 79 1.0 3.0 0.00 0.00 0.00 68 1006.0
20260901192457 90 341 0.0 3.0 0.00 0.00 0.00 68 1006.0
20260901192354 90 341 0.0 3.0 0.00 0.00 0.00 68 1006.1
20260901192257 90 333 0.0 3.0 0.00 0.00 0.00 67 1006.0
20260901192154 89 333 1.0 3.0 0.00 0.00 0.00 67 1006.0
20260901192054 89 333 1.0 3.0 0.00 0.00 0.00 67 1006.0
20260901191956 89 0 1.0 2.0 0.00 0.00 0.00 68 1006.0
20260901191855 89 61 1.0 1.0 0.00 0.00 0.00 68 1006.1
20260901191757 89 61 0.0 1.0 0.00 0.00 0.00 68 1006.0
20260901191656 89 0 0.0 1.0 0.00 0.00 0.00 68 1006.0
20260901191555 89 0 0.0 1.0 0.00 0.00 0.00 68 1006.0
20260901191454 89 0 0.0 1.0 0.00 0.00 0.00 68 1006.0
20260901191356 89 0 0.0 1.0 0.00 0.00 0.00 68 1006.0
20260901191256 89 0 0.0 1.0 0.00 0.00 0.00 68 1006.0
20260901191156 89 0 0.0 1.0 0.00 0.00 0.00 68 1005.9
20260901191053 89 0 0.0 1.0 0.00 0.00 0.00 68 1006.0
20260901190952 89 0 0.0 1.0 0.00 0.00 0.00 68 1006.0
20260901190852 89 0 0.0 1.0 0.00 0.00 0.00 68 1006.0
20260901190748 89 0 0.0 2.0 0.00 0.00 0.00 68 1006.0
20260901190645 89 0 1.0 3.0 0.00 0.00 0.00 68 1006.0
20260901190544 89 0 0.0 3.0 0.00 0.00 0.00 68 1005.9
20260901190436 89 0 0.0 3.0 0.00 0.00 0.00 69 1006.0
20260901190336 89 0 0.0 3.0 0.00 0.00 0.00 69 1006.0
20260901190237 89 0 0.0 3.0 0.00 0.00 0.00 69 1006.0
20260901190131 89 0 0.0 3.0 0.00 0.00 0.00 68 1005.9
20260901190033 89 0 1.0 3.0 0.00 0.00 0.00 68 1005.9
20260901185931 89 0 1.0 3.0 0.00 0.00 0.00 68 1005.9
20260901185831 89 0 2.0 3.0 0.00 0.00 0.00 68 1006.0
20260901185730 89 0 2.0 3.0 0.00 0.00 0.00 67 1006.0
20260901185631 89 27 1.0 2.0 0.00 0.00 0.00 67 1006.0
20260901185532 89 31 0.0 2.0 0.00 0.00 0.00 67 1006.0
20260901185426 89 31 0.0 2.0 0.00 0.00 0.00 68 1006.0
20260901185325 89 31 0.0 2.0 0.00 0.00 0.00 68 1006.0
20260901185222 89 31 0.0 1.0 0.00 0.00 0.00 68 1006.0
20260901185123 89 31 0.0 1.0 0.00 0.00 0.00 68 1006.0
20260901185006 89 31 0.0 1.0 0.00 0.00 0.00 68 1006.0
20260901184904 89 31 0.0 1.0 0.00 0.00 0.00 68 1006.0
20260901184803 89 31 0.0 2.0 0.00 0.00 0.00 68 1006.1
20260901184702 89 31 0.0 2.0 0.00 0.00 0.00 68 1006.0
20260901184604 89 31 0.0 2.0 0.00 0.00 0.00 68 1006.1
20260901184503 89 32 1.0 2.0 0.00 0.00 0.00 68 1006.1
20260901184403 89 34 1.0 2.0 0.00 0.00 0.00 68 1006.1
20260901184303 89 38 1.0 2.0 0.00 0.00 0.00 68 1006.1
20260901184203 89 38 1.0 2.0 0.00 0.00 0.00 68 1006.1
20260901184103 89 38 1.0 2.0 0.00 0.00 0.00 68 1006.1
20260901184005 89 338 0.0 2.0 0.00 0.00 0.00 68 1006.2
20260901183902 89 338 1.0 2.0 0.00 0.00 0.00 68 1006.2
20260901183803 89 94 1.0 2.0 0.00 0.00 0.00 68 1006.2
20260901183702 89 103 1.0 2.0 0.00 0.00 0.00 69 1006.2
20260901183605 89 110 0.0 2.0 0.00 0.00 0.00 69 1006.2
20260901183502 89 56 0.0 2.0 0.00 0.00 0.00 68 1006.2
20260901183402 89 56 0.0 2.0 0.00 0.00 0.00 68 1006.3
20260901183302 89 56 1.0 2.0 0.00 0.00 0.00 68 1006.3
20260901183203 89 56 0.0 2.0 0.00 0.00 0.00 67 1006.4
20260901183103 89 56 0.0 2.0 0.00 0.00 0.00 67 1006.4
20260901183006 89 56 0.0 2.0 0.00 0.00 0.00 67 1006.4
20260901182905 89 56 1.0 2.0 0.00 0.00 0.00 67 1006.4
20260901182803 89 56 1.0 2.0 0.00 0.00 0.00 67 1006.4
20260901182705 89 59 0.0 2.0 0.00 0.00 0.00 67 1006.4
20260901182605 89 59 0.0 2.0 0.00 0.00 0.00 66 1006.4
20260901182505 89 62 0.0 2.0 0.00 0.00 0.00 67 1006.4
20260901182404 89 56 0.0 2.0 0.00 0.00 0.00 67 1006.5
20260901182305 89 56 0.0 2.0 0.00 0.00 0.00 67 1006.4
20260901182205 89 56 1.0 2.0 0.00 0.00 0.00 68 1006.4
20260901182104 89 56 1.0 2.0 0.00 0.00 0.00 67 1006.5
20260901182004 89 56 1.0 2.0 0.00 0.00 0.00 68 1006.4
20260901181905 89 56 1.0 2.0 0.00 0.00 0.00 67 1006.4
20260901181805 89 56 0.0 2.0 0.00 0.00 0.00 67 1006.5
20260901181705 89 56 0.0 2.0 0.00 0.00 0.00 67 1006.4
20260901181604 89 56 0.0 2.0 0.00 0.00 0.00 67 1006.4
20260901181504 89 56 1.0 2.0 0.00 0.00 0.00 67 1006.4
20260901181405 89 21 1.0 2.0 0.00 0.00 0.00 67 1006.5
20260901181305 89 96 1.0 3.0 0.00 0.00 0.00 67 1006.5
20260901181205 89 192 1.0 3.0 0.00 0.00 0.00 67 1006.5
20260901181105 89 192 1.0 3.0 0.00 0.00 0.00 68 1006.5
20260901181003 89 92 1.0 3.0 0.00 0.00 0.00 68 1006.5
20260901180904 89 90 1.0 3.0 0.00 0.00 0.00 68 1006.5
20260901180804 89 63 1.0 3.0 0.00 0.00 0.00 68 1006.5
20260901180704 89 73 0.0 3.0 0.00 0.00 0.00 68 1006.5
20260901180605 89 75 1.0 3.0 0.00 0.00 0.00 67 1006.6
20260901180505 89 82 1.0 3.0 0.00 0.00 0.00 68 1006.5
20260901180404 89 73 1.0 3.0 0.00 0.00 0.00 69 1006.6
20260901180305 89 38 1.0 2.0 0.00 0.00 0.00 69 1006.7
20260901180205 89 49 1.0 2.0 0.00 0.00 0.00 69 1006.7
20260901180056 89 54 1.0 2.0 0.00 0.00 0.00 69 1006.7
20260901175953 89 59 1.0 3.0 0.00 0.00 0.00 69 1006.7
20260901175852 89 52 0.0 3.0 0.00 0.00 0.00 69 1006.7
20260901175752 89 45 1.0 3.0 0.00 0.00 0.00 69 1006.8
20260901175652 88 55 1.0 3.0 0.00 0.00 0.00 69 1006.8
20260901175554 88 302 1.0 3.0 0.00 0.00 0.00 69 1006.8
20260901175452 88 206 0.0 3.0 0.00 0.00 0.00 69 1006.9
20260901175352 88 206 0.0 3.0 0.00 0.00 0.00 69 1006.9
20260901175254 88 206 1.0 3.0 0.00 0.00 0.00 69 1006.9
20260901175153 88 203 1.0 3.0 0.00 0.00 0.00 69 1006.9
20260901175052 88 345 1.0 3.0 0.00 0.00 0.00 69 1006.9
20260901174954 88 7 1.0 2.0 0.00 0.00 0.00 69 1007.0
20260901174852 88 0 1.0 3.0 0.00 0.00 0.00 69 1007.0
20260901174754 88 0 1.0 3.0 0.00 0.00 0.00 69 1007.0
20260901174654 88 137 0.0 3.0 0.00 0.00 0.00 69 1007.1
20260901174554 88 137 1.0 3.0 0.00 0.00 0.00 69 1007.1
20260901174452 89 137 1.0 3.0 0.00 0.00 0.00 69 1007.1
20260901174351 89 121 0.0 3.0 0.00 0.00 0.00 69 1007.1
20260901174252 89 121 0.0 3.0 0.00 0.00 0.00 70 1007.2
20260901174152 89 106 0.0 3.0 0.00 0.00 0.00 70 1007.2
20260901174053 89 106 1.0 3.0 0.00 0.00 0.00 70 1007.2
20260901173953 89 106 2.0 3.0 0.00 0.00 0.00 69 1007.2
20260901173852 89 42 1.0 2.0 0.00 0.00 0.00 69 1007.2
20260901173753 89 48 0.0 2.0 0.00 0.00 0.00 69 1007.2
20260901173653 89 10 0.0 2.0 0.00 0.00 0.00 69 1007.3
20260901173553 89 32 0.0 2.0 0.00 0.00 0.00 69 1007.3
20260901173452 89 32 0.0 2.0 0.00 0.00 0.00 70 1007.3
20260901173351 89 31 0.0 2.0 0.00 0.00 0.00 70 1007.3
20260901173252 89 31 1.0 2.0 0.00 0.00 0.00 70 1007.3
20260901173153 89 42 0.0 2.0 0.00 0.00 0.00 70 1007.4
20260901173051 89 114 0.0 2.0 0.00 0.00 0.00 70 1007.4
20260901172952 88 114 0.0 2.0 0.00 0.00 0.00 70 1007.4
20260901172851 88 114 0.0 6.0 0.00 0.00 0.00 70 1007.4
20260901172752 88 120 0.0 6.0 0.00 0.00 0.00 69 1007.4
20260901172653 88 120 1.0 6.0 0.00 0.00 0.00 69 1007.5
20260901172553 88 195 1.0 6.0 0.00 0.00 0.00 70 1007.5
20260901172453 88 66 0.0 6.0 0.00 0.00 0.00 70 1007.5
20260901172351 88 27 1.0 6.0 0.00 0.00 0.00 70 1007.5
20260901172251 88 21 1.0 6.0 0.00 0.00 0.00 70 1007.5
20260901172151 88 99 0.0 6.0 0.00 0.00 0.00 70 1007.6
20260901172051 88 11 1.0 6.0 0.00 0.00 0.00 70 1007.5
20260901171951 88 0 1.0 6.0 0.00 0.00 0.00 70 1007.6
20260901171853 88 140 1.0 3.0 0.00 0.00 0.00 69 1007.6
20260901171752 88 245 1.0 3.0 0.00 0.00 0.00 69 1007.6
20260901171651 88 45 1.0 3.0 0.00 0.00 0.00 69 1007.7
20260901171552 88 41 1.0 3.0 0.00 0.00 0.00 69 1007.7
20260901171453 88 0 2.0 3.0 0.00 0.00 0.00 70 1007.7
20260901171351 88 113 1.0 3.0 0.00 0.00 0.00 70 1007.8
20260901171251 88 28 0.0 3.0 0.00 0.00 0.00 70 1007.7
20260901171151 88 78 0.0 3.0 0.00 0.00 0.00 70 1007.8
20260901171051 88 78 0.0 3.0 0.00 0.00 0.00 70 1007.7
20260901170952 88 80 0.0 3.0 0.00 0.00 0.00 70 1007.7
20260901170851 88 80 1.0 3.0 0.00 0.00 0.00 70 1007.8
20260901170751 88 38 1.0 3.0 0.00 0.00 0.00 70 1007.8
20260901170651 88 243 1.0 3.0 0.00 0.00 0.00 70 1007.8
20260901170553 88 279 2.0 3.0 0.00 0.00 0.00 70 1007.8
20260901170451 89 109 1.0 3.0 0.00 0.00 0.00 70 1007.8
20260901170351 89 104 1.0 3.0 0.00 0.00 0.00 70 1007.8
20260901170251 89 319 1.0 3.0 0.00 0.00 0.00 70 1007.8
20260901170151 89 102 1.0 3.0 0.00 0.00 0.00 70 1007.8
20260901170052 89 102 1.0 3.0 0.00 0.00 0.00 70 1007.8
20260901165952 89 135 0.0 3.0 0.00 0.00 0.00 69 1007.8
20260901165851 89 83 0.0 3.0 0.00 0.00 0.00 69 1007.8
20260901165752 89 83 1.0 3.0 0.00 0.00 0.00 69 1007.8
20260901165652 89 83 1.0 3.0 0.00 0.00 0.00 69 1007.8
20260901165551 90 38 0.0 3.0 0.00 0.00 0.00 69 1007.9
20260901165452 90 37 1.0 3.0 0.00 0.00 0.00 69 1007.8
20260901165352 90 32 2.0 3.0 0.00 0.00 0.00 69 1007.9
20260901165251 90 31 1.0 3.0 0.00 0.00 0.00 69 1007.9
20260901165152 91 31 1.0 3.0 0.00 0.00 0.00 69 1007.9
20260901165051 90 41 1.0 3.0 0.00 0.00 0.00 68 1007.9
20260901164950 90 357 1.0 3.0 0.00 0.00 0.00 68 1007.9
20260901164851 90 0 1.0 3.0 0.00 0.00 0.00 68 1007.9
20260901164751 90 0 1.0 3.0 0.00 0.00 0.00 70 1007.9
20260901164650 89 7 1.0 3.0 0.00 0.00 0.00 70 1007.9
20260901164552 89 0 1.0 3.0 0.00 0.00 0.00 70 1007.9
20260901164452 89 0 2.0 3.0 0.00 0.00 0.00 70 1007.9
20260901164351 89 305 1.0 3.0 0.00 0.00 0.00 70 1007.9
20260901164252 88 324 1.0 3.0 0.00 0.00 0.00 72 1007.9
20260901164150 88 324 2.0 3.0 0.00 0.00 0.00 72 1007.9
20260901164052 88 333 1.0 3.0 0.00 0.00 0.00 72 1007.9
20260901163952 88 87 1.0 3.0 0.00 0.00 0.00 72 1007.8
20260901163851 87 87 1.0 3.0 0.00 0.00 0.00 71 1007.8
20260901163750 88 87 1.0 3.0 0.00 0.00 0.00 71 1007.8
20260901163651 88 51 1.0 3.0 0.00 0.00 0.00 71 1007.8
20260901163550 88 16 2.0 3.0 0.00 0.00 0.00 71 1007.8
20260901163451 88 350 1.0 3.0 0.00 0.00 0.00 71 1007.8
20260901163352 88 245 0.0 2.0 0.00 0.00 0.00 71 1007.8
20260901163250 88 124 0.0 2.0 0.00 0.00 0.00 71 1007.8
20260901163150 88 124 0.0 2.0 0.00 0.00 0.00 71 1007.8
20260901163050 88 124 1.0 2.0 0.00 0.00 0.00 71 1007.8
20260901162950 88 103 1.0 3.0 0.00 0.00 0.00 71 1007.8
20260901162852 88 252 1.0 3.0 0.00 0.00 0.00 71 1007.9
20260901162750 88 103 1.0 3.0 0.00 0.00 0.00 71 1007.9
20260901162650 88 61 1.0 3.0 0.00 0.00 0.00 71 1007.9
20260901162552 88 27 1.0 3.0 0.00 0.00 0.00 71 1007.9
20260901162451 88 32 1.0 3.0 0.00 0.00 0.00 71 1007.8
20260901162350 87 32 2.0 3.0 0.00 0.00 0.00 71 1007.8
20260901162250 88 35 2.0 3.0 0.00 0.00 0.00 71 1007.8
20260901162150 88 68 2.0 3.0 0.00 0.00 0.00 72 1007.8
20260901162050 87 118 2.0 3.0 0.00 0.00 0.00 72 1007.8
20260901161950 87 329 1.0 3.0 0.00 0.00 0.00 72 1007.8
20260901161850 87 75 2.0 3.0 0.00 0.00 0.00 72 1007.8
20260901161750 87 59 1.0 3.0 0.00 0.00 0.00 73 1007.8
20260901161651 87 78 2.0 3.0 0.00 0.00 0.00 74 1007.7
20260901161552 87 0 1.0 3.0 0.00 0.00 0.00 74 1007.8
20260901161449 87 0 1.0 3.0 0.00 0.00 0.00 73 1007.8
20260901161351 87 66 0.0 3.0 0.00 0.00 0.00 73 1007.7
20260901161250 87 62 1.0 3.0 0.00 0.00 0.00 73 1007.8
20260901161150 87 147 1.0 3.0 0.00 0.00 0.00 73 1007.8
20260901161049 87 94 1.0 3.0 0.00 0.00 0.00 73 1007.7
20260901160950 87 109 1.0 3.0 0.00 0.00 0.00 73 1007.8
20260901160850 87 109 1.0 3.0 0.00 0.00 0.00 73 1007.8
20260901160749 87 44 1.0 3.0 0.00 0.00 0.00 73 1007.7
20260901160650 87 44 2.0 3.0 0.00 0.00 0.00 73 1007.8
20260901160549 87 45 1.0 3.0 0.00 0.00 0.00 73 1007.8
20260901160451 87 41 1.0 3.0 0.00 0.00 0.00 74 1007.9
20260901160352 87 66 0.0 3.0 0.00 0.00 0.00 74 1007.8
20260901160251 87 107 0.0 3.0 0.00 0.00 0.00 73 1007.8
20260901160150 87 107 1.0 3.0 0.00 0.00 0.00 73 1007.8
20260901160050 87 107 1.0 3.0 0.00 0.00 0.00 73 1007.9
20260901155951 87 72 1.0 3.0 0.00 0.00 0.00 73 1007.8
20260901155850 87 137 2.0 3.0 0.00 0.00 0.00 73 1007.8
20260901155751 87 75 1.0 3.0 0.00 0.00 0.00 73 1007.8
20260901155649 87 68 1.0 3.0 0.00 0.00 0.00 74 1007.8
20260901155550 87 330 1.0 3.0 0.00 0.00 0.00 73 1007.8
20260901155451 87 334 1.0 3.0 0.00 0.00 0.00 73 1007.8
20260901155353 87 131 1.0 4.0 0.00 0.00 0.00 75 1007.8
20260901155252 87 42 1.0 4.0 0.00 0.00 0.00 75 1007.7
20260901155149 87 324 2.0 4.0 0.00 0.00 0.00 75 1007.7
20260901155050 87 0 1.0 4.0 0.00 0.00 0.00 75 1007.7
20260901154950 87 63 2.0 4.0 0.00 0.00 0.00 75 1007.8
20260901154849 87 316 2.0 4.0 0.00 0.00 0.00 75 1007.8
20260901154749 86 202 2.0 4.0 0.00 0.00 0.00 76 1007.8
20260901154649 86 337 2.0 4.0 0.00 0.00 0.00 76 1007.7
20260901154549 86 0 1.0 4.0 0.00 0.00 0.00 75 1007.8
20260901154450 85 133 1.0 4.0 0.00 0.00 0.00 75 1007.8
20260901154349 85 62 1.0 4.0 0.00 0.00 0.00 76 1007.7
20260901154250 85 31 0.0 4.0 0.00 0.00 0.00 76 1007.7
20260901154149 85 79 0.0 4.0 0.00 0.00 0.00 76 1007.7
20260901154050 85 80 0.0 4.0 0.00 0.00 0.00 75 1007.7
20260901153949 85 80 0.0 4.0 0.00 0.00 0.00 75 1007.7
20260901153849 85 76 1.0 4.0 0.00 0.00 0.00 76 1007.7
20260901153750 85 96 2.0 4.0 0.00 0.00 0.00 76 1007.8
20260901153650 86 39 1.0 4.0 0.00 0.00 0.00 76 1007.8
20260901153550 86 90 2.0 4.0 0.00 0.00 0.00 76 1007.7
20260901153448 86 58 2.0 4.0 0.00 0.00 0.00 77 1007.7
20260901153349 86 319 1.0 3.0 0.00 0.00 0.00 77 1007.8
20260901153252 85 83 0.0 3.0 0.00 0.00 0.00 78 1007.8
20260901153151 85 90 0.0 3.0 0.00 0.00 0.00 78 1007.7
20260901153049 85 330 0.0 3.0 0.00 0.00 0.00 78 1007.8
20260901152950 85 330 1.0 3.0 0.00 0.00 0.00 80 1007.7
20260901152849 85 65 1.0 3.0 0.00 0.00 0.00 80 1007.8
20260901152749 85 214 1.0 4.0 0.00 0.00 0.00 80 1007.8
20260901152650 85 214 1.0 4.0 0.00 0.00 0.00 80 1007.7
20260901152549 85 93 1.0 4.0 0.00 0.00 0.00 80 1007.7
20260901152449 84 93 1.0 4.0 0.00 0.00 0.00 82 1007.7
20260901152350 84 93 1.0 4.0 0.00 0.00 0.00 82 1007.7
20260901152249 84 310 1.0 4.0 0.00 0.00 0.00 82 1007.7
20260901152150 84 327 1.0 4.0 0.00 0.00 0.00 82 1007.7
20260901152051 83 286 1.0 4.0 0.00 0.00 0.00 82 1007.8
20260901151949 83 282 2.0 4.0 0.00 0.00 0.00 84 1007.7
20260901151849 83 0 1.0 4.0 0.00 0.00 0.00 84 1007.8
20260901151748 83 58 1.0 2.0 0.00 0.00 0.00 84 1007.8
20260901151648 82 86 0.0 2.0 0.00 0.00 0.00 86 1007.7
20260901151548 82 89 0.0 2.0 0.00 0.00 0.00 86 1007.8
20260901151448 82 104 1.0 2.0 0.00 0.00 0.00 86 1007.8
20260901151348 81 76 1.0 2.0 0.00 0.00 0.00 86 1007.8
20260901151249 81 90 1.0 2.0 0.00 0.00 0.00 87 1007.8
20260901151148 80 90 1.0 2.0 0.00 0.00 0.00 89 1007.9
20260901151048 80 107 0.0 2.0 0.00 0.00 0.00 89 1007.8
20260901150950 80 62 0.0 3.0 0.00 0.00 0.00 89 1007.8
20260901150848 80 62 0.0 3.0 0.00 0.00 0.00 89 1007.8
20260901150750 80 65 0.0 3.0 0.00 0.00 0.00 89 1007.9
20260901150645 80 66 0.0 3.0 0.00 0.00 0.00 89 1007.9
20260901150544 79 63 0.0 3.0 0.00 0.00 0.00 89 1008.0
20260901150444 79 63 0.0 3.0 0.00 0.00 0.00 89 1007.9
20260901150344 79 89 0.0 3.0 0.00 0.00 0.00 89 1008.0
20260901150236 79 89 0.0 3.0 0.00 0.00 0.00 89 1008.0
20260901150134 79 89 1.0 3.0 0.00 0.00 0.00 89 1008.0
20260901150033 79 76 1.0 3.0 0.00 0.00 0.00 89 1008.0
20260901145931 79 90 0.0 1.0 0.00 0.00 0.00 89 1007.9
20260901145831 79 85 0.0 1.0 0.00 0.00 0.00 89 1007.9
20260901145733 79 102 0.0 1.0 0.00 0.00 0.00 89 1008.0
20260901145633 79 102 0.0 1.0 0.00 0.00 0.00 89 1007.9
20260901145531 79 100 0.0 1.0 0.00 0.00 0.00 89 1007.9
20260901145432 79 111 0.0 1.0 0.00 0.00 0.00 89 1008.0
20260901145331 79 118 0.0 1.0 0.00 0.00 0.00 89 1008.0
20260901145231 79 118 0.0 1.0 0.00 0.00 0.00 89 1008.1
20260901145134 79 54 0.0 1.0 0.00 0.00 0.00 89 1008.0
20260901145033 79 54 0.0 1.0 0.00 0.00 0.00 89 1008.0
20260901144930 79 55 0.0 1.0 0.00 0.00 0.00 89 1008.1
20260901144828 79 52 0.0 1.0 0.00 0.00 0.00 89 1008.0
20260901144726 79 23 0.0 1.0 0.00 0.00 0.00 89 1008.0
20260901144622 79 23 0.0 1.0 0.00 0.00 0.00 89 1008.0
20260901144521 79 23 0.0 1.0 0.00 0.00 0.00 89 1008.0
20260901144417 79 316 0.0 1.0 0.00 0.00 0.00 89 1008.0
20260901144315 79 316 0.0 1.0 0.00 0.00 0.00 89 1007.9
20260901144208 79 353 0.0 0.0 0.00 0.00 0.00 89 1008.0
20260901144105 79 353 0.0 0.0 0.00 0.00 0.00 89 1007.9
20260901144004 79 353 0.0 0.0 0.00 0.00 0.00 89 1007.9
20260901143904 79 353 0.0 0.0 0.00 0.00 0.00 89 1007.9
20260901143804 78 353 0.0 1.0 0.00 0.00 0.00 89 1007.8
20260901143703 78 353 0.0 1.0 0.00 0.00 0.00 89 1007.9
20260901143603 78 353 0.0 1.0 0.00 0.00 0.00 89 1007.9
20260901143503 78 353 0.0 1.0 0.00 0.00 0.00 89 1007.8
20260901143404 78 353 0.0 1.0 0.00 0.00 0.00 89 1007.9
20260901143305 78 353 0.0 1.0 0.00 0.00 0.00 89 1007.8
20260901143206 78 353 0.0 1.0 0.00 0.00 0.00 89 1007.9
20260901143050 78 353 0.0 1.0 0.00 0.00 0.00 89 1007.9
20260901142947 78 353 0.0 1.0 0.00 0.00 0.00 89 1007.9
20260901142849 78 353 0.0 1.0 0.00 0.00 0.00 89 1007.9
20260901142748 78 351 0.0 0.0 0.00 0.00 0.00 89 1007.9
20260901142648 78 351 0.0 0.0 0.00 0.00 0.00 89 1008.0
20260901142548 78 351 0.0 0.0 0.00 0.00 0.00 89 1007.9
20260901142447 78 353 0.0 0.0 0.00 0.00 0.00 89 1007.9
20260901142348 78 353 0.0 0.0 0.00 0.00 0.00 89 1007.8
20260901142249 78 353 0.0 0.0 0.00 0.00 0.00 89 1007.8
20260901142149 78 351 0.0 0.0 0.00 0.00 0.00 89 1007.8
20260901142048 78 351 0.0 1.0 0.00 0.00 0.00 89 1007.9
20260901141947 78 353 0.0 1.0 0.00 0.00 0.00 89 1007.8
20260901141848 78 353 0.0 1.0 0.00 0.00 0.00 89 1007.8
20260901141747 78 353 0.0 1.0 0.00 0.00 0.00 89 1007.8
20260901141649 78 351 0.0 1.0 0.00 0.00 0.00 89 1007.9
20260901141548 78 351 0.0 1.0 0.00 0.00 0.00 89 1007.9
20260901141447 78 351 0.0 1.0 0.00 0.00 0.00 89 1007.8
20260901141347 78 351 0.0 1.0 0.00 0.00 0.00 89 1007.9
20260901141248 78 351 0.0 1.0 0.00 0.00 0.00 89 1007.9
20260901141148 78 353 0.0 1.0 0.00 0.00 0.00 89 1007.9
20260901141049 78 353 0.0 0.0 0.00 0.00 0.00 89 1007.9
20260901140947 77 353 0.0 0.0 0.00 0.00 0.00 89 1007.9
20260901140848 77 353 0.0 0.0 0.00 0.00 0.00 89 1007.9
20260901140747 77 353 0.0 0.0 0.00 0.00 0.00 89 1007.8
20260901140648 77 353 0.0 0.0 0.00 0.00 0.00 89 1007.9
20260901140547 77 351 0.0 0.0 0.00 0.00 0.00 89 1007.9
20260901140447 77 353 0.0 0.0 0.00 0.00 0.00 89 1007.9
20260901140347 77 353 0.0 0.0 0.00 0.00 0.00 89 1008.0
20260901140248 77 353 0.0 0.0 0.00 0.00 0.00 89 1007.9
20260901140147 77 353 0.0 0.0 0.00 0.00 0.00 89 1007.9
20260901140048 77 353 0.0 0.0 0.00 0.00 0.00 89 1007.9
20260901135946 77 353 0.0 0.0 0.00 0.00 0.00 89 1007.9
20260901135847 77 353 0.0 0.0 0.00 0.00 0.00 89 1007.9
20260901135747 77 353 0.0 0.0 0.00 0.00 0.00 89 1007.9
20260901135648 77 353 0.0 0.0 0.00 0.00 0.00 89 1007.9
20260901135547 77 353 0.0 0.0 0.00 0.00 0.00 89 1007.9
20260901135447 77 353 0.0 0.0 0.00 0.00 0.00 89 1007.9
20260901135347 77 353 0.0 0.0 0.00 0.00 0.00 89 1007.9
20260901135247 77 353 0.0 0.0 0.00 0.00 0.00 89 1007.9
20260901135148 77 353 0.0 0.0 0.00 0.00 0.00 89 1007.9
20260901135047 77 353 0.0 0.0 0.00 0.00 0.00 89 1007.9
20260901134947 77 351 0.0 0.0 0.00 0.00 0.00 89 1007.9
20260901134847 76 353 0.0 0.0 0.00 0.00 0.00 89 1007.8
20260901134748 76 353 0.0 0.0 0.00 0.00 0.00 89 1008.0
20260901134649 76 353 0.0 0.0 0.00 0.00 0.00 89 1007.8
20260901134549 76 353 0.0 0.0 0.00 0.00 0.00 89 1007.8
20260901134450 76 353 0.0 0.0 0.00 0.00 0.00 89 1007.9
20260901134347 76 353 0.0 0.0 0.00 0.00 0.00 89 1008.0
20260901134248 76 353 0.0 0.0 0.00 0.00 0.00 89 1007.9
20260901134147 76 353 0.0 0.0 0.00 0.00 0.00 89 1007.9
20260901134047 76 353 0.0 0.0 0.00 0.00 0.00 89 1007.9
20260901133947 76 353 0.0 0.0 0.00 0.00 0.00 89 1008.0
20260901133847 76 353 0.0 0.0 0.00 0.00 0.00 89 1007.9
20260901133747 76 353 0.0 0.0 0.00 0.00 0.00 89 1007.9
20260901133647 76 353 0.0 0.0 0.00 0.00 0.00 89 1007.9
20260901133546 76 353 0.0 0.0 0.00 0.00 0.00 89 1007.9
20260901133447 76 353 0.0 0.0 0.00 0.00 0.00 89 1007.9
20260901133346 76 353 0.0 0.0 0.00 0.00 0.00 89 1007.9
20260901133246 76 353 0.0 0.0 0.00 0.00 0.00 89 1007.9
20260901133147 76 353 0.0 0.0 0.00 0.00 0.00 89 1007.9
20260901133047 76 353 0.0 1.0 0.00 0.00 0.00 89 1007.9
20260901132947 76 353 0.0 1.0 0.00 0.00 0.00 89 1007.9
20260901132846 76 353 0.0 1.0 0.00 0.00 0.00 89 1007.9
20260901132746 76 353 0.0 1.0 0.00 0.00 0.00 89 1007.9
20260901132646 76 353 0.0 1.0 0.00 0.00 0.00 89 1007.9
20260901132547 76 353 0.0 1.0 0.00 0.00 0.00 89 1007.9
20260901132446 76 353 0.0 1.0 0.00 0.00 0.00 89 1007.9
20260901132346 76 353 0.0 1.0 0.00 0.00 0.00 89 1007.8
20260901132247 76 353 0.0 1.0 0.00 0.00 0.00 89 1007.8
20260901132147 75 353 0.0 1.0 0.00 0.00 0.00 89 1007.8
20260901132046 75 353 0.0 1.0 0.00 0.00 0.00 89 1007.7
20260901131946 75 337 0.0 0.0 0.00 0.00 0.00 88 1007.8
20260901131848 75 337 0.0 0.0 0.00 0.00 0.00 89 1007.7
20260901131747 75 337 0.0 0.0 0.00 0.00 0.00 89 1007.7
20260901131646 75 337 0.0 0.0 0.00 0.00 0.00 89 1007.7
20260901131546 75 337 0.0 0.0 0.00 0.00 0.00 88 1007.8
20260901131446 75 337 0.0 0.0 0.00 0.00 0.00 88 1007.7
20260901131346 75 337 0.0 0.0 0.00 0.00 0.00 88 1007.8
20260901131246 75 337 0.0 0.0 0.00 0.00 0.00 88 1007.8
20260901131146 75 337 0.0 0.0 0.00 0.00 0.00 88 1007.7
20260901131046 75 337 0.0 0.0 0.00 0.00 0.00 88 1007.7
20260901130946 75 337 0.0 0.0 0.00 0.00 0.00 88 1007.7
20260901130846 75 337 0.0 0.0 0.00 0.00 0.00 88 1007.7
20260901130747 75 337 0.0 0.0 0.00 0.00 0.00 88 1007.6
20260901130648 75 337 0.0 0.0 0.00 0.00 0.00 88 1007.6
20260901130546 75 337 0.0 0.0 0.00 0.00 0.00 88 1007.7
20260901130446 75 337 0.0 0.0 0.00 0.00 0.00 88 1007.6
20260901130346 75 337 0.0 0.0 0.00 0.00 0.00 88 1007.6
20260901130246 75 337 0.0 0.0 0.00 0.00 0.00 88 1007.6
20260901130146 75 337 0.0 0.0 0.00 0.00 0.00 88 1007.6
20260901130046 75 337 0.0 0.0 0.00 0.00 0.00 88 1007.5
20260901125947 75 337 0.0 0.0 0.00 0.00 0.00 88 1007.6
20260901125845 75 337 0.0 0.0 0.00 0.00 0.00 88 1007.6
20260901125746 75 337 0.0 0.0 0.00 0.00 0.00 88 1007.6
20260901125646 75 337 0.0 0.0 0.00 0.00 0.00 88 1007.6
20260901125547 75 337 0.0 0.0 0.00 0.00 0.00 88 1007.6
20260901125446 75 337 0.0 0.0 0.00 0.00 0.00 88 1007.6
20260901125345 74 337 0.0 0.0 0.00 0.00 0.00 88 1007.6
20260901125246 74 337 0.0 0.0 0.00 0.00 0.00 88 1007.6
20260901125147 74 337 0.0 0.0 0.00 0.00 0.00 88 1007.6
20260901125045 74 337 0.0 0.0 0.00 0.00 0.00 88 1007.6
20260901124946 74 337 0.0 0.0 0.00 0.00 0.00 88 1007.6
20260901124846 74 337 0.0 0.0 0.00 0.00 0.00 88 1007.6
20260901124745 74 337 0.0 0.0 0.00 0.00 0.00 88 1007.5
20260901124646 74 337 0.0 0.0 0.00 0.00 0.00 88 1007.5
20260901124544 74 337 0.0 0.0 0.00 0.00 0.00 88 1007.5
20260901124443 74 337 0.0 0.0 0.00 0.00 0.00 88 1007.4
20260901124343 74 337 0.0 0.0 0.00 0.00 0.00 88 1007.5
20260901124238 74 337 0.0 0.0 0.00 0.00 0.00 88 1007.4
20260901124139 74 337 0.0 0.0 0.00 0.00 0.00 88 1007.4
20260901124031 74 337 0.0 0.0 0.00 0.00 0.00 88 1007.4
20260901123933 74 337 0.0 0.0 0.00 0.00 0.00 88 1007.4
20260901123828 74 337 0.0 0.0 0.00 0.00 0.00 88 1007.3
20260901123725 74 337 0.0 0.0 0.00 0.00 0.00 88 1007.3
20260901123617 74 337 0.0 0.0 0.00 0.00 0.00 88 1007.3
20260901123516 74 337 0.0 0.0 0.00 0.00 0.00 88 1007.3
20260901123412 74 337 0.0 0.0 0.00 0.00 0.00 88 1007.3
20260901123312 74 337 0.0 0.0 0.00 0.00 0.00 88 1007.3
20260901123209 74 337 0.0 0.0 0.00 0.00 0.00 88 1007.3
20260901123103 74 337 0.0 0.0 0.00 0.00 0.00 88 1007.2
20260901123003 74 337 0.0 0.0 0.00 0.00 0.00 88 1007.3
20260901122902 74 337 0.0 0.0 0.00 0.00 0.00 88 1007.3
20260901122802 74 337 0.0 0.0 0.00 0.00 0.00 88 1007.2
20260901122703 74 337 0.0 0.0 0.00 0.00 0.00 88 1007.3
20260901122602 74 337 0.0 0.0 0.00 0.00 0.00 88 1007.2
20260901122503 74 337 0.0 0.0 0.00 0.00 0.00 88 1007.2
20260901122404 74 337 0.0 0.0 0.00 0.00 0.00 88 1007.1
20260901122306 74 337 0.0 0.0 0.00 0.00 0.00 88 1007.2
20260901122205 74 337 0.0 0.0 0.00 0.00 0.00 88 1007.1
20260901122105 74 337 0.0 0.0 0.00 0.00 0.00 88 1007.0
20260901122007 74 337 0.0 0.0 0.00 0.00 0.00 88 1007.1
20260901121903 74 337 0.0 0.0 0.00 0.00 0.00 88 1007.0
20260901121803 74 337 0.0 0.0 0.00 0.00 0.00 88 1007.1
20260901121705 74 337 0.0 0.0 0.00 0.00 0.00 88 1007.0
20260901121605 74 337 0.0 0.0 0.00 0.00 0.00 88 1007.0
20260901121506 74 337 0.0 0.0 0.00 0.00 0.00 88 1007.1
20260901121402 74 337 0.0 0.0 0.00 0.00 0.00 88 1007.1
20260901121303 74 337 0.0 0.0 0.00 0.00 0.00 88 1007.1
20260901121204 74 337 0.0 0.0 0.00 0.00 0.00 88 1007.1
20260901121104 74 337 0.0 0.0 0.00 0.00 0.00 88 1007.1
20260901121004 74 337 0.0 0.0 0.00 0.00 0.00 88 1007.1
20260901120903 74 337 0.0 0.0 0.00 0.00 0.00 88 1007.1
20260901120802 74 337 0.0 0.0 0.00 0.00 0.00 88 1007.1
20260901120703 74 337 0.0 0.0 0.00 0.00 0.00 88 1007.1
20260901120603 74 337 0.0 0.0 0.00 0.00 0.00 88 1007.1
20260901120505 75 337 0.0 0.0 0.00 0.00 0.00 88 1007.2
20260901120405 75 337 0.0 0.0 0.00 0.00 0.00 88 1007.1
20260901120303 75 337 0.0 0.0 0.00 0.00 0.00 88 1007.1
20260901120203 75 337 0.0 0.0 0.00 0.00 0.00 88 1007.1
20260901120104 75 337 0.0 0.0 0.00 0.00 0.00 88 1007.1
20260901120006 75 337 0.0 0.0 0.00 0.00 0.00 88 1007.1
20260901115904 75 337 0.0 0.0 0.00 0.00 0.00 88 1007.1
20260901115803 74 337 0.0 0.0 0.00 0.00 0.00 88 1007.0
20260901115705 75 337 0.0 0.0 0.00 0.00 0.00 88 1007.0
20260901115603 75 337 0.0 0.0 0.00 0.00 0.00 88 1007.0
20260901115504 75 337 0.0 0.0 0.00 0.00 0.00 88 1006.9
20260901115404 75 337 0.0 0.0 0.00 0.00 0.00 88 1007.0
20260901115306 75 337 0.0 0.0 0.00 0.00 0.00 88 1006.9
20260901115203 75 337 0.0 0.0 0.00 0.00 0.00 88 1007.0
20260901115104 75 337 0.0 0.0 0.00 0.00 0.00 88 1006.9
20260901115004 75 337 0.0 0.0 0.00 0.00 0.00 88 1007.0
20260901114903 75 337 0.0 0.0 0.00 0.00 0.00 88 1006.9
20260901114803 75 337 0.0 0.0 0.00 0.00 0.00 88 1006.9
20260901114703 75 337 0.0 0.0 0.00 0.00 0.00 88 1007.0
20260901114604 75 337 0.0 0.0 0.00 0.00 0.00 88 1007.0
20260901114505 75 337 0.0 0.0 0.00 0.00 0.00 88 1007.0
20260901114405 75 337 0.0 0.0 0.00 0.00 0.00 88 1006.9
20260901114303 75 337 0.0 0.0 0.00 0.00 0.00 88 1007.0
20260901114203 75 337 0.0 0.0 0.00 0.00 0.00 88 1006.9
20260901114104 75 337 0.0 0.0 0.00 0.00 0.00 88 1007.0
20260901114004 75 337 0.0 0.0 0.00 0.00 0.00 88 1006.9
20260901113903 75 337 0.0 0.0 0.00 0.00 0.00 88 1006.9
20260901113803 75 337 0.0 0.0 0.00 0.00 0.00 88 1006.9
20260901113703 75 337 0.0 0.0 0.00 0.00 0.00 88 1006.9
20260901113606 75 337 0.0 0.0 0.00 0.00 0.00 88 1006.8
20260901113451 75 337 0.0 0.0 0.00 0.00 0.00 88 1006.8
20260901113352 75 337 0.0 0.0 0.00 0.00 0.00 88 1006.8
20260901113248 75 337 0.0 0.0 0.00 0.00 0.00 88 1006.8
20260901113144 75 337 0.0 0.0 0.00 0.00 0.00 88 1006.8
20260901113045 75 337 0.0 0.0 0.00 0.00 0.00 88 1006.8
20260901112944 75 337 0.0 0.0 0.00 0.00 0.00 88 1006.8
20260901112843 75 337 0.0 0.0 0.00 0.00 0.00 88 1006.9
20260901112744 75 337 0.0 0.0 0.00 0.00 0.00 88 1006.8
20260901112645 75 337 0.0 0.0 0.00 0.00 0.00 88 1006.8
20260901112545 75 337 0.0 0.0 0.00 0.00 0.00 88 1006.8
20260901112445 75 337 0.0 0.0 0.00 0.00 0.00 88 1006.8
20260901112345 75 337 0.0 0.0 0.00 0.00 0.00 88 1006.8
20260901112247 75 337 0.0 0.0 0.00 0.00 0.00 88 1006.8
20260901112145 75 337 0.0 0.0 0.00 0.00 0.00 88 1006.7
20260901112044 75 337 0.0 0.0 0.00 0.00 0.00 88 1006.7
20260901111945 75 337 0.0 0.0 0.00 0.00 0.00 88 1006.7
20260901111833 75 337 0.0 0.0 0.00 0.00 0.00 88 1006.7
20260901111730 75 337 0.0 0.0 0.00 0.00 0.00 88 1006.7
20260901111630 75 337 0.0 0.0 0.00 0.00 0.00 88 1006.7
20260901111531 75 337 0.0 0.0 0.00 0.00 0.00 88 1006.7
20260901111431 75 337 0.0 0.0 0.00 0.00 0.00 88 1006.6
20260901111332 75 337 0.0 0.0 0.00 0.00 0.00 88 1006.7
20260901111227 75 337 0.0 0.0 0.00 0.00 0.00 88 1006.7
20260901111127 75 337 0.0 0.0 0.00 0.00 0.00 88 1006.7
20260901111028 75 337 0.0 0.0 0.00 0.00 0.00 88 1006.6
20260901110928 75 337 0.0 0.0 0.00 0.00 0.00 88 1006.6
20260901110828 75 337 0.0 0.0 0.00 0.00 0.00 88 1006.7
20260901110727 75 337 0.0 0.0 0.00 0.00 0.00 88 1006.6
20260901110625 75 337 0.0 0.0 0.00 0.00 0.00 88 1006.6
20260901110512 75 337 0.0 0.0 0.00 0.00 0.00 88 1006.6
20260901110410 75 337 0.0 0.0 0.00 0.00 0.00 88 1006.6
20260901110306 75 337 0.0 0.0 0.00 0.00 0.00 88 1006.6
20260901110207 75 337 0.0 0.0 0.00 0.00 0.00 88 1006.6
20260901110105 75 337 0.0 0.0 0.00 0.00 0.00 88 1006.6
20260901110004 75 337 0.0 0.0 0.00 0.00 0.00 88 1006.7
20260901105905 75 337 0.0 0.0 0.00 0.00 0.00 88 1006.6
20260901105803 75 337 0.0 0.0 0.00 0.00 0.00 88 1006.7
20260901105703 75 337 0.0 0.0 0.00 0.00 0.00 88 1006.7
20260901105603 75 337 0.0 0.0 0.00 0.00 0.00 88 1006.8
20260901105504 75 337 0.0 0.0 0.00 0.00 0.00 88 1006.7
20260901105402 75 337 0.0 0.0 0.00 0.00 0.00 88 1006.7
20260901105305 75 337 0.0 0.0 0.00 0.00 0.00 88 1006.8
20260901105203 75 337 0.0 0.0 0.00 0.00 0.00 88 1006.7
20260901105103 75 337 0.0 0.0 0.00 0.00 0.00 88 1006.7
20260901105005 75 337 0.0 0.0 0.00 0.00 0.00 88 1006.7
20260901104903 75 337 0.0 0.0 0.00 0.00 0.00 88 1006.7
20260901104802 75 337 0.0 0.0 0.00 0.00 0.00 88 1006.7
20260901104702 75 337 0.0 0.0 0.00 0.00 0.00 88 1006.8
20260901104603 75 337 0.0 0.0 0.00 0.00 0.00 88 1006.7
20260901104503 75 337 0.0 0.0 0.00 0.00 0.00 88 1006.7
20260901104402 75 337 0.0 0.0 0.00 0.00 0.00 88 1006.7
20260901104304 75 337 0.0 0.0 0.00 0.00 0.00 88 1006.7
20260901104203 75 337 0.0 0.0 0.00 0.00 0.00 88 1006.7
20260901104105 75 337 0.0 0.0 0.00 0.00 0.00 88 1006.6
20260901104003 75 337 0.0 0.0 0.00 0.00 0.00 88 1006.6
20260901103903 75 337 0.0 0.0 0.00 0.00 0.00 88 1006.6
20260901103803 75 337 0.0 0.0 0.00 0.00 0.00 88 1006.6
20260901103703 75 337 0.0 0.0 0.00 0.00 0.00 88 1006.6
20260901103603 75 337 0.0 0.0 0.00 0.00 0.00 88 1006.6
20260901103502 75 337 0.0 0.0 0.00 0.00 0.00 88 1006.5
20260901103402 75 337 0.0 0.0 0.00 0.00 0.00 88 1006.7
20260901103303 75 337 0.0 0.0 0.00 0.00 0.00 88 1006.6
20260901103204 75 337 0.0 0.0 0.00 0.00 0.00 88 1006.6
20260901103102 75 337 0.0 0.0 0.00 0.00 0.00 88 1006.6
20260901103002 75 337 0.0 0.0 0.00 0.00 0.00 88 1006.6
20260901102902 75 337 0.0 0.0 0.00 0.00 0.00 88 1006.6
20260901102802 75 337 0.0 0.0 0.00 0.00 0.00 88 1006.6
20260901102704 75 337 0.0 0.0 0.00 0.00 0.00 88 1006.6
20260901102603 75 337 0.0 0.0 0.00 0.00 0.00 88 1006.6
20260901102503 75 337 0.0 0.0 0.00 0.00 0.00 88 1006.6
20260901102402 75 337 0.0 0.0 0.00 0.00 0.00 88 1006.6
20260901102306 75 337 0.0 0.0 0.00 0.00 0.00 88 1006.6
20260901102202 75 337 0.0 0.0 0.00 0.00 0.00 88 1006.6
20260901102102 75 337 0.0 0.0 0.00 0.00 0.00 88 1006.5
20260901102003 75 337 0.0 0.0 0.00 0.00 0.00 88 1006.5
20260901101903 75 337 0.0 0.0 0.00 0.00 0.00 88 1006.5
20260901101802 75 337 0.0 0.0 0.00 0.00 0.00 88 1006.5
20260901101703 75 337 0.0 0.0 0.00 0.00 0.00 88 1006.5
20260901101604 75 337 0.0 0.0 0.00 0.00 0.00 88 1006.5
20260901101503 76 337 0.0 0.0 0.00 0.00 0.00 88 1006.5
20260901101402 76 337 0.0 0.0 0.00 0.00 0.00 88 1006.5
20260901101302 75 337 0.0 0.0 0.00 0.00 0.00 88 1006.5
20260901101203 76 337 0.0 0.0 0.00 0.00 0.00 88 1006.5
20260901101102 76 337 0.0 0.0 0.00 0.00 0.00 88 1006.5
20260901101003 76 337 0.0 0.0 0.00 0.00 0.00 88 1006.5
20260901100902 76 337 0.0 0.0 0.00 0.00 0.00 88 1006.4
20260901100802 76 337 0.0 0.0 0.00 0.00 0.00 88 1006.5
20260901100703 76 337 0.0 0.0 0.00 0.00 0.00 88 1006.5
20260901100602 76 337 0.0 0.0 0.00 0.00 0.00 88 1006.4
20260901100503 76 337 0.0 0.0 0.00 0.00 0.00 88 1006.4
20260901100404 76 337 0.0 0.0 0.00 0.00 0.00 88 1006.4
20260901100302 76 337 0.0 0.0 0.00 0.00 0.00 88 1006.4
20260901100203 76 337 0.0 0.0 0.00 0.00 0.00 88 1006.4
20260901100003 76 337 0.0 0.0 0.00 0.00 0.00 88 1006.5
20260901095902 76 337 0.0 0.0 0.00 0.00 0.00 88 1006.4
20260901095802 76 337 0.0 0.0 0.00 0.00 0.00 88 1006.4
20260901095703 76 337 0.0 0.0 0.00 0.00 0.00 88 1006.4
20260901095602 76 337 0.0 0.0 0.00 0.00 0.00 88 1006.3
20260901095503 76 337 0.0 0.0 0.00 0.00 0.00 88 1006.3
20260901095402 76 337 0.0 0.0 0.00 0.00 0.00 88 1006.3
20260901095306 76 337 0.0 0.0 0.00 0.00 0.00 88 1006.3
20260901095202 76 337 0.0 0.0 0.00 0.00 0.00 88 1006.3
20260901095102 76 337 0.0 0.0 0.00 0.00 0.00 88 1006.3
20260901095003 76 337 0.0 0.0 0.00 0.00 0.00 88 1006.3
20260901094903 76 337 0.0 0.0 0.00 0.00 0.00 88 1006.3
20260901094802 76 337 0.0 0.0 0.00 0.00 0.00 88 1006.3
20260901094702 76 337 0.0 0.0 0.00 0.00 0.00 88 1006.3
20260901094603 76 337 0.0 0.0 0.00 0.00 0.00 88 1006.3
20260901094503 76 337 0.0 0.0 0.00 0.00 0.00 88 1006.4
20260901094403 76 337 0.0 0.0 0.00 0.00 0.00 88 1006.4
20260901094303 76 337 0.0 0.0 0.00 0.00 0.00 88 1006.4
20260901094203 76 337 0.0 0.0 0.00 0.00 0.00 88 1006.4
20260901094104 76 337 0.0 0.0 0.00 0.00 0.00 88 1006.4
20260901094005 76 337 0.0 0.0 0.00 0.00 0.00 88 1006.5
20260901093904 76 337 0.0 0.0 0.00 0.00 0.00 88 1006.5
20260901093802 76 337 0.0 0.0 0.00 0.00 0.00 88 1006.4
20260901093702 76 337 0.0 0.0 0.00 0.00 0.00 88 1006.5
20260901093602 76 337 0.0 0.0 0.00 0.00 0.00 88 1006.4
20260901093502 76 337 0.0 0.0 0.00 0.00 0.00 88 1006.6
20260901093402 76 337 0.0 0.0 0.00 0.00 0.00 88 1006.4
20260901093304 76 337 0.0 0.0 0.00 0.00 0.00 88 1006.5
20260901093205 76 337 0.0 0.0 0.00 0.00 0.00 88 1006.5
20260901093103 76 337 0.0 0.0 0.00 0.00 0.00 88 1006.5
20260901093003 76 337 0.0 0.0 0.00 0.00 0.00 88 1006.5
20260901092902 76 337 0.0 0.0 0.00 0.00 0.00 88 1006.5
20260901092802 76 337 0.0 0.0 0.00 0.00 0.00 88 1006.5
20260901092703 76 337 0.0 0.0 0.00 0.00 0.00 88 1006.5
20260901092602 76 337 0.0 0.0 0.00 0.00 0.00 88 1006.5
20260901092502 76 337 0.0 0.0 0.00 0.00 0.00 88 1006.4
20260901092402 76 337 0.0 0.0 0.00 0.00 0.00 88 1006.5
20260901092305 76 337 0.0 0.0 0.00 0.00 0.00 88 1006.5
20260901092202 76 337 0.0 0.0 0.00 0.00 0.00 88 1006.5
20260901092102 76 337 0.0 0.0 0.00 0.00 0.00 88 1006.5
20260901092002 76 337 0.0 0.0 0.00 0.00 0.00 88 1006.5
20260901091904 76 337 0.0 0.0 0.00 0.00 0.00 88 1006.5
20260901091804 76 337 0.0 0.0 0.00 0.00 0.00 88 1006.5
20260901091702 76 337 0.0 0.0 0.00 0.00 0.00 88 1006.4
20260901091603 76 337 0.0 0.0 0.00 0.00 0.00 88 1006.5
20260901091505 76 337 0.0 0.0 0.00 0.00 0.00 88 1006.5
20260901091402 76 337 0.0 0.0 0.00 0.00 0.00 88 1006.5
20260901091302 76 337 0.0 0.0 0.00 0.00 0.00 88 1006.5
20260901091203 76 337 0.0 0.0 0.00 0.00 0.00 88 1006.5
20260901091104 76 337 0.0 0.0 0.00 0.00 0.00 88 1006.5
20260901091003 76 337 0.0 0.0 0.00 0.00 0.00 88 1006.6
20260901090902 76 337 0.0 0.0 0.00 0.00 0.00 88 1006.6
20260901090802 76 337 0.0 0.0 0.00 0.00 0.00 88 1006.5
20260901090702 76 337 0.0 0.0 0.00 0.00 0.00 88 1006.6
20260901090605 76 337 0.0 0.0 0.00 0.00 0.00 88 1006.6
20260901090509 76 337 0.0 0.0 0.00 0.00 0.00 88 1006.5
20260901090404 76 337 0.0 0.0 0.00 0.00 0.00 88 1006.6
20260901090304 76 337 0.0 0.0 0.00 0.00 0.00 88 1006.6
20260901090151 76 337 0.0 0.0 0.00 0.00 0.00 88 1006.6
20260901090043 76 337 0.0 0.0 0.00 0.00 0.00 88 1006.7
20260901085940 76 337 0.0 0.0 0.00 0.00 0.00 88 1006.7
20260901085842 76 337 0.0 0.0 0.00 0.00 0.00 88 1006.6
20260901085741 76 337 0.0 0.0 0.00 0.00 0.00 88 1006.6
20260901085642 76 337 0.0 0.0 0.00 0.00 0.00 88 1006.6
20260901085540 76 337 0.0 0.0 0.00 0.00 0.00 88 1006.6
20260901085442 76 337 0.0 0.0 0.00 0.00 0.00 88 1006.6
20260901085340 76 337 0.0 0.0 0.00 0.00 0.00 88 1006.7
20260901085241 76 337 0.0 0.0 0.00 0.00 0.00 88 1006.6
20260901085141 76 337 0.0 0.0 0.00 0.00 0.00 88 1006.6
20260901085042 76 337 0.0 0.0 0.00 0.00 0.00 88 1006.6
20260901084942 76 337 0.0 0.0 0.00 0.00 0.00 88 1006.6
20260901084840 76 337 0.0 0.0 0.00 0.00 0.00 88 1006.6
20260901084740 76 337 0.0 0.0 0.00 0.00 0.00 88 1006.7
20260901084640 76 337 0.0 0.0 0.00 0.00 0.00 88 1006.7
20260901084540 76 337 0.0 0.0 0.00 0.00 0.00 88 1006.6
20260901084440 76 337 0.0 0.0 0.00 0.00 0.00 88 1006.5
20260901084342 76 337 0.0 0.0 0.00 0.00 0.00 88 1006.5
20260901084241 76 337 0.0 0.0 0.00 0.00 0.00 88 1006.6
20260901084140 76 337 0.0 0.0 0.00 0.00 0.00 88 1006.6
20260901084043 76 337 0.0 0.0 0.00 0.00 0.00 88 1006.6
20260901083942 76 337 0.0 0.0 0.00 0.00 0.00 88 1006.6
20260901083841 76 337 0.0 0.0 0.00 0.00 0.00 88 1006.6
20260901083740 76 337 0.0 0.0 0.00 0.00 0.00 88 1006.6
20260901083639 76 337 0.0 0.0 0.00 0.00 0.00 88 1006.6
20260901083541 76 337 0.0 0.0 0.00 0.00 0.00 88 1006.7
20260901083440 76 337 0.0 0.0 0.00 0.00 0.00 88 1006.7
20260901083341 76 337 0.0 0.0 0.00 0.00 0.00 88 1006.7
20260901083240 76 337 0.0 0.0 0.00 0.00 0.00 88 1006.7
20260901083141 76 337 0.0 0.0 0.00 0.00 0.00 88 1006.7
20260901083039 76 337 0.0 0.0 0.00 0.00 0.00 88 1006.8
20260901082939 76 337 0.0 0.0 0.00 0.00 0.00 88 1006.7
20260901082840 76 337 0.0 0.0 0.00 0.00 0.00 88 1006.8
20260901082741 76 337 0.0 0.0 0.00 0.00 0.00 88 1006.8
20260901082641 76 337 0.0 0.0 0.00 0.00 0.00 88 1006.8
20260901082540 76 337 0.0 0.0 0.00 0.00 0.00 88 1006.7
20260901082439 76 337 0.0 0.0 0.00 0.00 0.00 88 1006.7
20260901082341 76 337 0.0 0.0 0.00 0.00 0.00 88 1006.8
20260901082241 76 337 0.0 0.0 0.00 0.00 0.00 88 1006.8
20260901082139 76 337 0.0 0.0 0.00 0.00 0.00 88 1006.8
20260901082039 76 337 0.0 0.0 0.00 0.00 0.00 88 1006.8
20260901081941 76 337 0.0 0.0 0.00 0.00 0.00 88 1006.8
20260901081840 76 337 0.0 0.0 0.00 0.00 0.00 88 1006.8
20260901081739 76 337 0.0 0.0 0.00 0.00 0.00 88 1006.9
20260901081639 76 337 0.0 0.0 0.00 0.00 0.00 88 1006.9
20260901081540 76 337 0.0 0.0 0.00 0.00 0.00 88 1006.9
20260901081440 76 337 0.0 0.0 0.00 0.00 0.00 88 1006.9
20260901081339 76 337 0.0 0.0 0.00 0.00 0.00 88 1006.9
20260901081239 76 337 0.0 0.0 0.00 0.00 0.00 88 1006.9
20260901081140 76 337 0.0 0.0 0.00 0.00 0.00 88 1006.9
20260901081039 76 337 0.0 0.0 0.00 0.00 0.00 88 1006.9
20260901080941 76 337 0.0 0.0 0.00 0.00 0.00 88 1006.9
20260901080840 76 337 0.0 0.0 0.00 0.00 0.00 88 1006.9
20260901080739 76 337 0.0 0.0 0.00 0.00 0.00 88 1006.9
20260901080640 76 337 0.0 0.0 0.00 0.00 0.00 88 1006.9
20260901080539 76 337 0.0 0.0 0.00 0.00 0.00 88 1006.9
20260901080439 76 337 0.0 0.0 0.00 0.00 0.00 88 1006.8
20260901080339 76 337 0.0 0.0 0.00 0.00 0.00 88 1006.9
20260901080239 76 337 0.0 0.0 0.00 0.00 0.00 88 1006.9
20260901080141 76 337 0.0 0.0 0.00 0.00 0.00 88 1006.9
20260901080041 76 337 0.0 0.0 0.00 0.00 0.00 87 1006.9
20260901075939 76 337 0.0 0.0 0.00 0.00 0.00 87 1006.9
20260901075841 76 337 0.0 0.0 0.00 0.00 0.00 87 1006.8
20260901075739 76 337 0.0 0.0 0.00 0.00 0.00 87 1006.9
20260901075640 76 337 0.0 0.0 0.00 0.00 0.00 87 1006.9
20260901075540 77 337 0.0 0.0 0.00 0.00 0.00 87 1006.9
20260901075440 77 337 0.0 0.0 0.00 0.00 0.00 87 1006.8
20260901075338 77 337 0.0 0.0 0.00 0.00 0.00 87 1006.9
20260901075238 77 337 0.0 0.0 0.00 0.00 0.00 87 1006.9
20260901075141 76 337 0.0 0.0 0.00 0.00 0.00 87 1006.9
20260901075040 76 337 0.0 0.0 0.00 0.00 0.00 87 1006.9
20260901074939 77 337 0.0 0.0 0.00 0.00 0.00 87 1006.9
20260901074838 77 337 0.0 0.0 0.00 0.00 0.00 87 1006.9
20260901074738 77 337 0.0 0.0 0.00 0.00 0.00 87 1006.9
20260901074638 77 337 0.0 0.0 0.00 0.00 0.00 87 1006.9
20260901074537 77 337 0.0 0.0 0.00 0.00 0.00 87 1006.9
20260901074438 77 337 0.0 0.0 0.00 0.00 0.00 87 1007.0
20260901074331 77 337 0.0 0.0 0.00 0.00 0.00 87 1006.9
20260901074232 77 337 0.0 0.0 0.00 0.00 0.00 87 1006.9
20260901074124 77 337 0.0 0.0 0.00 0.00 0.00 87 1006.9
20260901074024 77 337 0.0 0.0 0.00 0.00 0.00 87 1007.0
20260901073921 77 337 0.0 0.0 0.00 0.00 0.00 87 1007.0
20260901073819 77 337 0.0 0.0 0.00 0.00 0.00 87 1007.0
20260901073718 77 337 0.0 0.0 0.00 0.00 0.00 87 1007.0
20260901073615 77 337 0.0 0.0 0.00 0.00 0.00 87 1006.9
20260901073512 77 337 0.0 0.0 0.00 0.00 0.00 87 1006.9
20260901073407 77 337 0.0 0.0 0.00 0.00 0.00 87 1006.9
20260901073305 77 337 0.0 0.0 0.00 0.00 0.00 87 1007.0
20260901073204 77 337 0.0 0.0 0.00 0.00 0.00 87 1006.9
20260901073102 77 337 0.0 0.0 0.00 0.00 0.00 87 1006.9
20260901073002 77 337 0.0 0.0 0.00 0.00 0.00 87 1006.9
20260901072904 77 337 0.0 0.0 0.00 0.00 0.00 87 1006.9
20260901072803 77 337 0.0 0.0 0.00 0.00 0.00 87 1007.0
20260901072704 77 337 0.0 0.0 0.00 0.00 0.00 87 1006.9
20260901072602 77 337 0.0 0.0 0.00 0.00 0.00 87 1006.9
20260901072505 77 337 0.0 0.0 0.00 0.00 0.00 87 1006.9
20260901072405 77 337 0.0 0.0 0.00 0.00 0.00 87 1006.9
20260901072309 77 337 0.0 0.0 0.00 0.00 0.00 87 1006.9
20260901072203 77 337 0.0 0.0 0.00 0.00 0.00 87 1006.9
20260901072103 77 337 0.0 0.0 0.00 0.00 0.00 87 1006.9
20260901072005 77 337 0.0 0.0 0.00 0.00 0.00 87 1006.9
20260901071902 77 337 0.0 0.0 0.00 0.00 0.00 87 1006.9
20260901071802 77 337 0.0 0.0 0.00 0.00 0.00 87 1006.9
20260901071702 77 337 0.0 0.0 0.00 0.00 0.00 87 1006.8
20260901071604 77 337 0.0 0.0 0.00 0.00 0.00 86 1006.8
20260901071502 77 337 0.0 0.0 0.00 0.00 0.00 86 1006.9
20260901071402 77 337 0.0 0.0 0.00 0.00 0.00 86 1006.9
20260901071303 77 337 0.0 0.0 0.00 0.00 0.00 86 1006.9
20260901071202 77 337 0.0 0.0 0.00 0.00 0.00 86 1006.9
20260901071102 77 337 0.0 0.0 0.00 0.00 0.00 86 1006.8
20260901071005 77 337 0.0 0.0 0.00 0.00 0.00 86 1006.9
20260901070904 77 337 0.0 0.0 0.00 0.00 0.00 86 1006.9
20260901070803 77 337 0.0 0.0 0.00 0.00 0.00 86 1006.9
20260901070703 77 337 0.0 0.0 0.00 0.00 0.00 86 1006.9
20260901070602 77 337 0.0 0.0 0.00 0.00 0.00 86 1006.9
20260901070502 77 337 0.0 0.0 0.00 0.00 0.00 86 1006.9
20260901070409 77 337 0.0 0.0 0.00 0.00 0.00 86 1006.9
20260901070302 77 337 0.0 0.0 0.00 0.00 0.00 86 1007.0
20260901070204 77 337 0.0 0.0 0.00 0.00 0.00 86 1007.0
20260901070105 77 337 0.0 0.0 0.00 0.00 0.00 86 1006.9
20260901070003 77 337 0.0 0.0 0.00 0.00 0.00 86 1007.0
20260901065902 77 337 0.0 0.0 0.00 0.00 0.00 86 1007.0
20260901065803 77 337 0.0 0.0 0.00 0.00 0.00 86 1007.0
20260901065702 77 337 0.0 0.0 0.00 0.00 0.00 86 1007.0
20260901065604 77 337 0.0 0.0 0.00 0.00 0.00 86 1007.0
20260901065505 78 337 0.0 0.0 0.00 0.00 0.00 86 1007.0
20260901065405 77 337 0.0 0.0 0.00 0.00 0.00 86 1007.0
20260901065306 77 337 0.0 0.0 0.00 0.00 0.00 86 1007.0
20260901065205 78 337 0.0 0.0 0.00 0.00 0.00 86 1006.9
20260901065103 78 337 0.0 0.0 0.00 0.00 0.00 86 1006.9
20260901065002 78 337 0.0 0.0 0.00 0.00 0.00 86 1007.0
20260901064904 78 337 0.0 0.0 0.00 0.00 0.00 86 1006.9
20260901064802 78 337 0.0 0.0 0.00 0.00 0.00 86 1006.9
20260901064703 78 337 0.0 0.0 0.00 0.00 0.00 86 1006.9
20260901064602 78 337 0.0 0.0 0.00 0.00 0.00 86 1006.9
20260901064505 78 337 0.0 0.0 0.00 0.00 0.00 86 1006.9
20260901064403 78 337 0.0 0.0 0.00 0.00 0.00 86 1007.0
20260901064302 78 337 0.0 0.0 0.00 0.00 0.00 86 1006.9
20260901064203 78 337 0.0 0.0 0.00 0.00 0.00 86 1007.0
20260901064103 78 337 0.0 0.0 0.00 0.00 0.00 86 1006.9
20260901064002 78 337 0.0 0.0 0.00 0.00 0.00 86 1007.0
20260901063902 78 337 0.0 0.0 0.00 0.00 0.00 86 1007.0
20260901063805 78 337 0.0 0.0 0.00 0.00 0.00 86 1006.9
20260901063705 78 337 0.0 0.0 0.00 0.00 0.00 86 1006.9
20260901063602 78 337 0.0 0.0 0.00 0.00 0.00 86 1006.9
20260901063502 78 337 0.0 0.0 0.00 0.00 0.00 86 1006.9
20260901063404 78 337 0.0 0.0 0.00 0.00 0.00 86 1007.0
20260901063303 78 337 0.0 0.0 0.00 0.00 0.00 86 1007.0
20260901063202 78 337 0.0 0.0 0.00 0.00 0.00 86 1007.0
20260901063103 78 337 0.0 0.0 0.00 0.00 0.00 86 1007.0
20260901063004 78 337 0.0 0.0 0.00 0.00 0.00 86 1007.0
20260901062903 78 337 0.0 0.0 0.00 0.00 0.00 86 1007.1
20260901062803 78 337 0.0 0.0 0.00 0.00 0.00 86 1007.1
20260901062702 78 337 0.0 0.0 0.00 0.00 0.00 86 1007.0
20260901062605 78 337 0.0 0.0 0.00 0.00 0.00 86 1007.1
20260901062502 78 337 0.0 0.0 0.00 0.00 0.00 86 1007.0
20260901062402 78 337 0.0 0.0 0.00 0.00 0.00 86 1007.1
20260901062309 78 337 0.0 0.0 0.00 0.00 0.00 86 1007.1
20260901062203 78 337 0.0 0.0 0.00 0.00 0.00 86 1007.1
20260901062104 78 337 0.0 0.0 0.00 0.00 0.00 86 1007.1
20260901062002 78 337 0.0 0.0 0.00 0.00 0.00 86 1007.2
20260901061904 78 337 0.0 0.0 0.00 0.00 0.00 86 1007.2
20260901061802 78 337 0.0 0.0 0.00 0.00 0.00 86 1007.2
20260901061703 78 337 0.0 0.0 0.00 0.00 0.00 86 1007.2
20260901061602 78 337 0.0 0.0 0.00 0.00 0.00 86 1007.2
20260901061502 78 337 0.0 0.0 0.00 0.00 0.00 86 1007.2
20260901061402 78 337 0.0 0.0 0.00 0.00 0.00 86 1007.2
20260901061304 78 337 0.0 0.0 0.00 0.00 0.00 86 1007.3
20260901061202 78 337 0.0 0.0 0.00 0.00 0.00 86 1007.2
20260901061104 78 337 0.0 0.0 0.00 0.00 0.00 86 1007.2
20260901061004 78 337 0.0 0.0 0.00 0.00 0.00 86 1007.1
20260901060903 78 337 0.0 0.0 0.00 0.00 0.00 85 1007.2
20260901060802 78 337 0.0 0.0 0.00 0.00 0.00 85 1007.1
20260901060704 78 337 0.0 0.0 0.00 0.00 0.00 85 1007.1
20260901060602 78 337 0.0 0.0 0.00 0.00 0.00 85 1007.1
20260901060503 78 337 0.0 0.0 0.00 0.00 0.00 85 1007.1
20260901060404 78 337 0.0 0.0 0.00 0.00 0.00 85 1007.1
20260901060304 78 337 0.0 0.0 0.00 0.00 0.00 85 1007.1
20260901060139 78 337 0.0 0.0 0.00 0.00 0.00 85 1007.1
20260901060038 78 337 0.0 0.0 0.00 0.00 0.00 85 1007.1
20260901055936 78 337 0.0 0.0 0.00 0.00 0.00 85 1007.1
20260901055838 78 337 0.0 0.0 0.00 0.00 0.00 85 1007.1
20260901055738 78 337 0.0 0.0 0.00 0.00 0.00 85 1007.1
20260901055637 78 337 0.0 0.0 0.00 0.00 0.00 85 1007.1
20260901055536 78 337 0.0 0.0 0.00 0.00 0.00 85 1007.1
20260901055437 78 337 0.0 0.0 0.00 0.00 0.00 85 1007.1
20260901055336 78 337 0.0 0.0 0.00 0.00 0.00 85 1007.1
20260901055237 78 337 0.0 0.0 0.00 0.00 0.00 85 1007.0
20260901055136 78 337 0.0 0.0 0.00 0.00 0.00 85 1007.1
20260901055036 78 337 0.0 0.0 0.00 0.00 0.00 85 1007.1
20260901054936 78 337 0.0 0.0 0.00 0.00 0.00 85 1007.1
20260901054836 78 337 0.0 0.0 0.00 0.00 0.00 85 1007.1
20260901054736 78 337 0.0 0.0 0.00 0.00 0.00 85 1007.0
20260901054637 78 337 0.0 0.0 0.00 0.00 0.00 85 1007.1
20260901054537 78 337 0.0 0.0 0.00 0.00 0.00 85 1007.0
20260901054436 78 337 0.0 0.0 0.00 0.00 0.00 85 1007.0
20260901054336 78 337 0.0 0.0 0.00 0.00 0.00 85 1007.0
20260901054237 78 337 0.0 0.0 0.00 0.00 0.00 85 1007.0
20260901054136 78 337 0.0 0.0 0.00 0.00 0.00 85 1007.0
20260901054035 78 337 0.0 0.0 0.00 0.00 0.00 85 1007.0
20260901053937 78 337 0.0 0.0 0.00 0.00 0.00 85 1006.9
20260901053836 78 337 0.0 0.0 0.00 0.00 0.00 85 1007.0
20260901053737 78 337 0.0 0.0 0.00 0.00 0.00 85 1006.9
20260901053636 78 337 0.0 0.0 0.00 0.00 0.00 85 1006.9
20260901053536 78 337 0.0 0.0 0.00 0.00 0.00 85 1007.0
20260901053437 78 337 0.0 0.0 0.00 0.00 0.00 85 1007.0
20260901053336 78 337 0.0 0.0 0.00 0.00 0.00 85 1006.9
20260901053237 78 337 0.0 0.0 0.00 0.00 0.00 84 1007.0
20260901053137 78 337 0.0 0.0 0.00 0.00 0.00 84 1006.9
20260901053036 78 337 0.0 0.0 0.00 0.00 0.00 84 1006.9
20260901052936 78 337 0.0 0.0 0.00 0.00 0.00 84 1006.9
20260901052838 78 337 0.0 0.0 0.00 0.00 0.00 84 1006.9
20260901052737 78 337 0.0 0.0 0.00 0.00 0.00 84 1006.9
20260901052637 78 337 0.0 0.0 0.00 0.00 0.00 84 1006.9
20260901052535 78 337 0.0 0.0 0.00 0.00 0.00 84 1007.0
20260901052437 78 337 0.0 0.0 0.00 0.00 0.00 84 1006.9
20260901052335 78 337 0.0 0.0 0.00 0.00 0.00 84 1006.9
20260901052235 78 337 0.0 0.0 0.00 0.00 0.00 84 1006.9
20260901052136 78 337 0.0 0.0 0.00 0.00 0.00 84 1006.9
20260901052037 78 337 0.0 0.0 0.00 0.00 0.00 84 1006.9
20260901051935 78 337 0.0 0.0 0.00 0.00 0.00 84 1006.9
20260901051836 78 337 0.0 0.0 0.00 0.00 0.00 84 1006.9
20260901051735 78 337 0.0 0.0 0.00 0.00 0.00 84 1006.8
20260901051636 78 337 0.0 0.0 0.00 0.00 0.00 84 1006.8
20260901051537 78 337 0.0 0.0 0.00 0.00 0.00 84 1006.9
20260901051435 79 337 0.0 0.0 0.00 0.00 0.00 84 1006.8
20260901051335 79 337 0.0 0.0 0.00 0.00 0.00 84 1006.8
20260901051237 79 337 0.0 0.0 0.00 0.00 0.00 83 1006.8
20260901051136 79 337 0.0 0.0 0.00 0.00 0.00 83 1006.8
20260901051036 79 337 0.0 0.0 0.00 0.00 0.00 83 1006.8
20260901050935 79 337 0.0 0.0 0.00 0.00 0.00 83 1006.7
20260901050836 79 337 0.0 0.0 0.00 0.00 0.00 83 1006.8
20260901050737 79 337 0.0 0.0 0.00 0.00 0.00 83 1006.7
20260901050635 79 337 0.0 0.0 0.00 0.00 0.00 83 1006.8
20260901050536 79 337 0.0 0.0 0.00 0.00 0.00 83 1006.8
20260901050436 79 337 0.0 0.0 0.00 0.00 0.00 83 1006.7
20260901050336 79 337 0.0 0.0 0.00 0.00 0.00 83 1006.7
20260901050235 79 337 0.0 0.0 0.00 0.00 0.00 83 1006.7
20260901050137 79 337 0.0 0.0 0.00 0.00 0.00 83 1006.7
20260901050037 79 337 0.0 0.0 0.00 0.00 0.00 83 1006.7
20260901045935 79 337 0.0 0.0 0.00 0.00 0.00 83 1006.7
20260901045835 79 337 0.0 0.0 0.00 0.00 0.00 83 1006.7
20260901045737 79 337 0.0 0.0 0.00 0.00 0.00 83 1006.6
20260901045636 79 337 0.0 0.0 0.00 0.00 0.00 83 1006.6
20260901045535 79 337 0.0 0.0 0.00 0.00 0.00 83 1006.6
20260901045435 79 337 0.0 0.0 0.00 0.00 0.00 83 1006.7
20260901045336 79 337 0.0 0.0 0.00 0.00 0.00 83 1006.6
20260901045236 79 337 0.0 0.0 0.00 0.00 0.00 83 1006.6
20260901045135 79 337 0.0 0.0 0.00 0.00 0.00 83 1006.6
20260901045035 79 337 0.0 0.0 0.00 0.00 0.00 83 1006.6
20260901044935 79 337 0.0 0.0 0.00 0.00 0.00 83 1006.6
20260901044834 79 337 0.0 0.0 0.00 0.00 0.00 83 1006.6
20260901044735 79 337 0.0 0.0 0.00 0.00 0.00 83 1006.6
20260901044635 79 337 0.0 0.0 0.00 0.00 0.00 83 1006.6
20260901044535 79 337 0.0 0.0 0.00 0.00 0.00 83 1006.5
20260901044435 79 337 0.0 0.0 0.00 0.00 0.00 83 1006.6
20260901044336 79 337 0.0 0.0 0.00 0.00 0.00 83 1006.6
20260901044235 79 337 0.0 0.0 0.00 0.00 0.00 83 1006.6
20260901044136 79 337 0.0 0.0 0.00 0.00 0.00 83 1006.6
20260901044035 79 337 0.0 0.0 0.00 0.00 0.00 83 1006.5
20260901043934 79 337 0.0 0.0 0.00 0.00 0.00 82 1006.5
20260901043835 79 337 0.0 0.0 0.00 0.00 0.00 82 1006.5
20260901043734 80 337 0.0 0.0 0.00 0.00 0.00 82 1006.4
20260901043634 80 337 0.0 0.0 0.00 0.00 0.00 82 1006.5
20260901043534 80 337 0.0 0.0 0.00 0.00 0.00 82 1006.5
20260901043436 80 337 0.0 0.0 0.00 0.00 0.00 83 1006.6
20260901043335 80 337 0.0 0.0 0.00 0.00 0.00 83 1006.6
20260901043235 80 337 0.0 0.0 0.00 0.00 0.00 83 1006.5
20260901043135 80 337 0.0 0.0 0.00 0.00 0.00 83 1006.5
20260901043034 80 337 0.0 0.0 0.00 0.00 0.00 83 1006.4
20260901042934 80 336 0.0 0.0 0.00 0.00 0.00 83 1006.5
20260901042834 79 336 0.0 0.0 0.00 0.00 0.00 83 1006.4
20260901042735 79 336 0.0 0.0 0.00 0.00 0.00 83 1006.3
20260901042634 79 336 0.0 0.0 0.00 0.00 0.00 83 1006.4
20260901042534 79 336 0.0 0.0 0.00 0.00 0.00 83 1006.3
20260901042434 79 336 0.0 0.0 0.00 0.00 0.00 83 1006.4
20260901042335 79 336 0.0 0.0 0.00 0.00 0.00 83 1006.4
20260901042234 79 336 0.0 0.0 0.00 0.00 0.00 83 1006.4
20260901042134 79 336 0.0 0.0 0.00 0.00 0.00 83 1006.4
20260901042034 79 336 0.0 0.0 0.00 0.00 0.00 83 1006.4
20260901041936 79 336 0.0 0.0 0.00 0.00 0.00 83 1006.4
20260901041834 79 336 0.0 0.0 0.00 0.00 0.00 83 1006.4
20260901041736 79 336 0.0 0.0 0.00 0.00 0.00 83 1006.4
20260901041634 79 336 0.0 0.0 0.00 0.00 0.00 83 1006.4
20260901041535 79 336 0.0 0.0 0.00 0.00 0.00 83 1006.4
20260901041434 79 336 0.0 0.0 0.00 0.00 0.00 82 1006.3
20260901041334 79 336 0.0 0.0 0.00 0.00 0.00 82 1006.4
20260901041235 79 336 0.0 0.0 0.00 0.00 0.00 82 1006.4
20260901041135 79 336 0.0 0.0 0.00 0.00 0.00 82 1006.4
20260901041031 79 336 0.0 0.0 0.00 0.00 0.00 82 1006.5
20260901040931 79 336 0.0 0.0 0.00 0.00 0.00 82 1006.5
20260901040831 79 336 0.0 0.0 0.00 0.00 0.00 82 1006.5
20260901040732 79 336 0.0 0.0 0.00 0.00 0.00 82 1006.5
20260901040631 79 336 0.0 0.0 0.00 0.00 0.00 82 1006.5
20260901040531 80 336 0.0 0.0 0.00 0.00 0.00 82 1006.5
20260901040432 80 336 0.0 0.0 0.00 0.00 0.00 82 1006.5
20260901040331 80 336 0.0 0.0 0.00 0.00 0.00 82 1006.6
20260901040231 80 336 0.0 0.0 0.00 0.00 0.00 82 1006.5
20260901040133 80 336 0.0 0.0 0.00 0.00 0.00 81 1006.5
20260901040033 80 336 0.0 0.0 0.00 0.00 0.00 81 1006.4
20260901035933 80 336 0.0 0.0 0.00 0.00 0.00 82 1006.4
20260901035834 80 336 0.0 0.0 0.00 0.00 0.00 82 1006.4
20260901035733 80 336 0.0 0.0 0.00 0.00 0.00 82 1006.3
20260901035631 80 336 0.0 0.0 0.00 0.00 0.00 82 1006.4
20260901035531 80 336 0.0 0.0 0.00 0.00 0.00 82 1006.4
20260901035433 80 336 0.0 0.0 0.00 0.00 0.00 82 1006.4
20260901035331 80 336 0.0 0.0 0.00 0.00 0.00 82 1006.4
20260901035231 80 336 0.0 0.0 0.00 0.00 0.00 82 1006.3
20260901035132 80 336 0.0 0.0 0.00 0.00 0.00 82 1006.3
20260901035031 80 336 0.0 0.0 0.00 0.00 0.00 81 1006.3
20260901034932 80 336 0.0 0.0 0.00 0.00 0.00 81 1006.2
20260901034831 80 336 0.0 0.0 0.00 0.00 0.00 81 1006.2
20260901034733 80 336 0.0 0.0 0.00 0.00 0.00 81 1006.2
20260901034634 80 336 0.0 0.0 0.00 0.00 0.00 81 1006.1
20260901034533 80 336 0.0 0.0 0.00 0.00 0.00 81 1006.2
20260901034430 80 336 0.0 0.0 0.00 0.00 0.00 81 1006.1
20260901034331 80 336 0.0 0.0 0.00 0.00 0.00 81 1006.1
20260901034231 80 336 0.0 0.0 0.00 0.00 0.00 81 1006.0
20260901034132 80 336 0.0 0.0 0.00 0.00 0.00 81 1006.1
20260901034033 80 336 0.0 0.0 0.00 0.00 0.00 81 1006.0
20260901033932 80 336 0.0 0.0 0.00 0.00 0.00 81 1006.0
20260901033831 80 336 0.0 0.0 0.00 0.00 0.00 81 1006.0
20260901033731 80 336 0.0 0.0 0.00 0.00 0.00 81 1006.0
20260901033631 80 336 0.0 0.0 0.00 0.00 0.00 81 1006.1
20260901033534 80 336 0.0 0.0 0.00 0.00 0.00 81 1005.9
20260901033431 80 336 0.0 0.0 0.00 0.00 0.00 81 1005.8
20260901033331 80 336 0.0 0.0 0.00 0.00 0.00 81 1005.9
20260901033232 80 336 0.0 0.0 0.00 0.00 0.00 81 1005.9
20260901033133 80 336 0.0 0.0 0.00 0.00 0.00 81 1005.9
20260901033031 80 336 0.0 0.0 0.00 0.00 0.00 81 1005.9
20260901032931 80 336 0.0 0.0 0.00 0.00 0.00 81 1005.9
20260901032833 80 336 0.0 0.0 0.00 0.00 0.00 81 1005.9
20260901032731 80 336 0.0 0.0 0.00 0.00 0.00 81 1005.9
20260901032631 80 336 0.0 0.0 0.00 0.00 0.00 81 1005.9
20260901032532 80 336 0.0 0.0 0.00 0.00 0.00 81 1005.9
20260901032432 80 336 0.0 0.0 0.00 0.00 0.00 81 1005.8
20260901032331 80 336 0.0 0.0 0.00 0.00 0.00 81 1005.8
20260901032231 80 336 0.0 0.0 0.00 0.00 0.00 81 1005.7
20260901032133 80 336 0.0 0.0 0.00 0.00 0.00 81 1005.8
20260901032031 80 336 0.0 0.0 0.00 0.00 0.00 81 1005.8
20260901031931 80 336 0.0 0.0 0.00 0.00 0.00 81 1005.8
20260901031831 80 336 0.0 0.0 0.00 0.00 0.00 81 1005.7
20260901031732 80 336 0.0 0.0 0.00 0.00 0.00 81 1005.7
20260901031629 80 336 0.0 0.0 0.00 0.00 0.00 81 1005.7
20260901031527 80 336 0.0 0.0 0.00 0.00 0.00 81 1005.7
20260901031427 80 336 0.0 0.0 0.00 0.00 0.00 80 1005.8
20260901031324 80 336 0.0 0.0 0.00 0.00 0.00 80 1005.7
20260901031220 80 336 0.0 0.0 0.00 0.00 0.00 80 1005.8
20260901031121 80 336 0.0 0.0 0.00 0.00 0.00 80 1005.7
20260901031016 80 336 0.0 0.0 0.00 0.00 0.00 80 1005.7
20260901030915 80 336 0.0 0.0 0.00 0.00 0.00 80 1005.7
20260901030811 80 336 0.0 0.0 0.00 0.00 0.00 80 1005.6
20260901030703 80 336 0.0 0.0 0.00 0.00 0.00 80 1005.7
20260901030603 80 336 0.0 0.0 0.00 0.00 0.00 80 1005.7
20260901030503 80 336 0.0 0.0 0.00 0.00 0.00 80 1005.6
20260901030402 80 336 0.0 0.0 0.00 0.00 0.00 80 1005.6
20260901030302 80 336 0.0 0.0 0.00 0.00 0.00 80 1005.6
20260901030202 80 336 0.0 0.0 0.00 0.00 0.00 80 1005.6
20260901030103 80 336 0.0 0.0 0.00 0.00 0.00 80 1005.6
20260901030004 81 336 0.0 0.0 0.00 0.00 0.00 80 1005.6
20260901025903 81 336 0.0 0.0 0.00 0.00 0.00 80 1005.6
20260901025803 81 336 0.0 0.0 0.00 0.00 0.00 80 1005.7
20260901025703 81 336 0.0 0.0 0.00 0.00 0.00 80 1005.7
20260901025602 81 336 0.0 0.0 0.00 0.00 0.00 80 1005.6
20260901025504 81 336 0.0 0.0 0.00 0.00 0.00 80 1005.6
20260901025403 81 336 0.0 0.0 0.00 0.00 0.00 80 1005.6
20260901025305 81 336 0.0 0.0 0.00 0.00 0.00 79 1005.7
20260901025204 81 336 0.0 0.0 0.00 0.00 0.00 79 1005.7
20260901025102 81 336 0.0 0.0 0.00 0.00 0.00 79 1005.7
20260901025003 81 336 0.0 0.0 0.00 0.00 0.00 79 1005.7
20260901024903 81 336 0.0 0.0 0.00 0.00 0.00 79 1005.6
20260901024803 81 336 0.0 0.0 0.00 0.00 0.00 79 1005.6
20260901024703 81 336 0.0 0.0 0.00 0.00 0.00 79 1005.6
20260901024603 81 336 0.0 0.0 0.00 0.00 0.00 79 1005.6
20260901024503 81 336 0.0 0.0 0.00 0.00 0.00 79 1005.7
20260901024402 81 336 0.0 0.0 0.00 0.00 0.00 79 1005.6
20260901024304 81 336 0.0 0.0 0.00 0.00 0.00 79 1005.5
20260901024202 81 336 0.0 0.0 0.00 0.00 0.00 78 1005.5
20260901024103 81 336 0.0 0.0 0.00 0.00 0.00 78 1005.5
20260901024004 81 336 0.0 0.0 0.00 0.00 0.00 78 1005.6
20260901023904 81 336 0.0 0.0 0.00 0.00 0.00 78 1005.5
20260901023804 82 336 0.0 0.0 0.00 0.00 0.00 78 1005.5
20260901023705 82 336 0.0 0.0 0.00 0.00 0.00 78 1005.5
20260901023604 82 336 0.0 0.0 0.00 0.00 0.00 78 1005.4
20260901023505 82 336 0.0 0.0 0.00 0.00 0.00 78 1005.4
20260901023403 82 336 0.0 0.0 0.00 0.00 0.00 78 1005.4
20260901023303 82 336 0.0 0.0 0.00 0.00 0.00 78 1005.4
20260901023202 82 336 0.0 0.0 0.00 0.00 0.00 78 1005.3
20260901023103 82 336 0.0 0.0 0.00 0.00 0.00 78 1005.3
20260901023004 82 336 0.0 0.0 0.00 0.00 0.00 78 1005.4
20260901022904 82 336 0.0 0.0 0.00 0.00 0.00 78 1005.4
20260901022804 82 336 0.0 0.0 0.00 0.00 0.00 78 1005.3
20260901022702 82 336 0.0 0.0 0.00 0.00 0.00 78 1005.3
20260901022604 82 336 0.0 0.0 0.00 0.00 0.00 78 1005.3
20260901022503 82 336 0.0 0.0 0.00 0.00 0.00 78 1005.3
20260901022403 82 336 0.0 0.0 0.00 0.00 0.00 78 1005.3
20260901022306 82 336 0.0 0.0 0.00 0.00 0.00 78 1005.2
20260901022202 82 336 0.0 0.0 0.00 0.00 0.00 77 1005.3
20260901022103 82 336 0.0 0.0 0.00 0.00 0.00 77 1005.2
20260901022004 82 336 0.0 0.0 0.00 0.00 0.00 77 1005.2
20260901021902 82 336 0.0 0.0 0.00 0.00 0.00 77 1005.1
20260901021803 82 336 0.0 0.0 0.00 0.00 0.00 76 1005.2
20260901021704 82 336 0.0 0.0 0.00 0.00 0.00 76 1005.2
20260901021602 82 336 0.0 0.0 0.00 0.00 0.00 76 1005.1
20260901021503 82 336 0.0 0.0 0.00 0.00 0.00 76 1005.2
20260901021404 82 336 0.0 0.0 0.00 0.00 0.00 76 1005.2
20260901021303 82 336 0.0 0.0 0.00 0.00 0.00 76 1005.2
20260901021203 83 336 0.0 0.0 0.00 0.00 0.00 76 1005.2
20260901021103 83 336 0.0 0.0 0.00 0.00 0.00 76 1005.2
20260901021004 83 336 0.0 0.0 0.00 0.00 0.00 76 1005.2
20260901020902 83 336 0.0 0.0 0.00 0.00 0.00 76 1005.2
20260901020802 83 336 0.0 0.0 0.00 0.00 0.00 76 1005.1
20260901020703 83 336 0.0 0.0 0.00 0.00 0.00 76 1005.2
20260901020604 83 336 0.0 0.0 0.00 0.00 0.00 76 1005.1
20260901020504 83 336 0.0 0.0 0.00 0.00 0.00 76 1005.1
20260901020404 83 336 0.0 0.0 0.00 0.00 0.00 76 1005.1
20260901020303 83 336 0.0 0.0 0.00 0.00 0.00 76 1005.1
20260901020203 83 336 0.0 0.0 0.00 0.00 0.00 76 1005.1
20260901020004 83 336 0.0 0.0 0.00 0.00 0.00 75 1005.1
20260901015903 83 336 0.0 0.0 0.00 0.00 0.00 75 1005.1
20260901015804 83 336 0.0 0.0 0.00 0.00 0.00 76 1005.1
20260901015704 83 336 0.0 0.0 0.00 0.00 0.00 76 1005.1
20260901015602 83 336 0.0 0.0 0.00 0.00 0.00 75 1005.1
20260901015500 83 336 0.0 0.0 0.00 0.00 0.00 75 1005.1
20260901015353 83 336 0.0 0.0 0.00 0.00 0.00 75 1005.1
20260901015251 83 336 0.0 0.0 0.00 0.00 0.00 75 1005.1
20260901015142 83 336 0.0 0.0 0.00 0.00 0.00 75 1005.1
20260901015038 83 336 0.0 0.0 0.00 0.00 0.00 75 1005.1
20260901014938 83 336 0.0 0.0 0.00 0.00 0.00 75 1005.0
20260901014834 83 336 0.0 0.0 0.00 0.00 0.00 75 1005.1
20260901014734 83 336 0.0 0.0 0.00 0.00 0.00 74 1005.0
20260901014630 83 336 0.0 0.0 0.00 0.00 0.00 74 1005.1
20260901014530 84 336 0.0 0.0 0.00 0.00 0.00 74 1005.0
20260901014431 84 336 0.0 0.0 0.00 0.00 0.00 74 1005.0
20260901014332 84 336 0.0 0.0 0.00 0.00 0.00 74 1005.0
20260901014231 84 336 0.0 0.0 0.00 0.00 0.00 74 1005.0
20260901014130 84 336 0.0 0.0 0.00 0.00 0.00 74 1005.0
20260901014031 84 336 0.0 0.0 0.00 0.00 0.00 74 1005.0
20260901013931 84 336 0.0 0.0 0.00 0.00 0.00 74 1004.9
20260901013832 84 336 0.0 0.0 0.00 0.00 0.00 74 1005.0
20260901013731 84 336 0.0 0.0 0.00 0.00 0.00 74 1005.0
20260901013630 84 336 0.0 0.0 0.00 0.00 0.00 74 1004.9
20260901013533 84 336 0.0 0.0 0.00 0.00 0.00 74 1004.9
20260901013431 84 336 0.0 0.0 0.00 0.00 0.00 74 1004.9
20260901013333 84 336 0.0 0.0 0.00 0.00 0.00 74 1005.0
20260901013232 84 336 0.0 0.0 0.00 0.00 0.00 74 1005.0
20260901013130 84 336 0.0 0.0 0.00 0.00 0.00 74 1005.0
20260901013031 84 336 0.0 0.0 0.00 0.00 0.00 74 1004.9
20260901012932 84 336 0.0 0.0 0.00 0.00 0.00 73 1004.9
20260901012830 85 336 0.0 0.0 0.00 0.00 0.00 73 1004.9
20260901012732 85 336 0.0 0.0 0.00 0.00 0.00 73 1004.9
20260901012630 85 336 0.0 0.0 0.00 0.00 0.00 73 1005.0
20260901012530 85 336 0.0 0.0 0.00 0.00 0.00 73 1004.9
20260901012432 85 336 0.0 0.0 0.00 0.00 0.00 73 1005.0
20260901012330 85 336 0.0 0.0 0.00 0.00 0.00 73 1005.0
20260901012232 85 336 0.0 0.0 0.00 0.00 0.00 73 1005.0
20260901012130 85 336 0.0 0.0 0.00 0.00 0.00 73 1004.9
20260901012031 85 336 0.0 0.0 0.00 0.00 0.00 72 1004.9
20260901011930 85 336 0.0 0.0 0.00 0.00 0.00 72 1005.0
20260901011831 85 336 0.0 0.0 0.00 0.00 0.00 73 1005.0
20260901011730 85 336 0.0 0.0 0.00 0.00 0.00 73 1005.0
20260901011631 85 336 0.0 0.0 0.00 0.00 0.00 72 1005.0
20260901011531 85 336 0.0 0.0 0.00 0.00 0.00 72 1005.0
20260901011431 85 336 0.0 0.0 0.00 0.00 0.00 72 1004.9
20260901011332 85 336 0.0 0.0 0.00 0.00 0.00 72 1004.9
20260901011230 85 336 0.0 0.0 0.00 0.00 0.00 72 1004.9
20260901011131 85 336 0.0 0.0 0.00 0.00 0.00 72 1004.9
20260901011030 86 336 0.0 0.0 0.00 0.00 0.00 72 1005.0
20260901010932 86 336 0.0 0.0 0.00 0.00 0.00 72 1004.9
20260901010829 86 336 0.0 0.0 0.00 0.00 0.00 72 1004.9
20260901010730 86 336 0.0 0.0 0.00 0.00 0.00 72 1004.9
20260901010629 86 336 0.0 0.0 0.00 0.00 0.00 71 1004.9
20260901010530 86 336 0.0 0.0 0.00 0.00 0.00 71 1004.9
20260901010430 86 336 0.0 0.0 0.00 0.00 0.00 71 1004.9
20260901010329 86 336 0.0 0.0 0.00 0.00 0.00 71 1004.9
20260901010229 86 336 0.0 0.0 0.00 0.00 0.00 71 1004.8
20260901010129 86 336 0.0 0.0 0.00 0.00 0.00 71 1004.9
20260901010032 87 336 0.0 0.0 0.00 0.00 0.00 71 1004.9
20260901005929 87 336 0.0 0.0 0.00 0.00 0.00 71 1004.9
20260901005829 87 336 0.0 0.0 0.00 0.00 0.00 71 1004.8
20260901005731 87 336 0.0 0.0 0.00 0.00 0.00 71 1004.8
20260901005630 87 336 0.0 0.0 0.00 0.00 0.00 71 1004.8
20260901005531 87 336 0.0 0.0 0.00 0.00 0.00 71 1004.8
20260901005432 87 336 0.0 0.0 0.00 0.00 0.00 71 1004.8
20260901005331 87 336 0.0 0.0 0.00 0.00 0.00 71 1004.9
20260901005232 87 336 0.0 0.0 0.00 0.00 0.00 71 1004.9
20260901005132 87 336 0.0 0.0 0.00 0.00 0.00 71 1004.8
20260901005030 87 336 0.0 0.0 0.00 0.00 0.00 70 1004.9
20260901004931 87 336 0.0 0.0 0.00 0.00 0.00 70 1004.8
20260901004830 87 336 0.0 0.0 0.00 0.00 0.00 70 1004.8
20260901004730 87 336 0.0 0.0 0.00 0.00 0.00 70 1004.9
20260901004631 87 336 0.0 0.0 0.00 0.00 0.00 70 1004.8
20260901004529 87 336 0.0 0.0 0.00 0.00 0.00 70 1004.8
20260901004430 87 336 0.0 0.0 0.00 0.00 0.00 70 1004.8
20260901004331 87 336 0.0 0.0 0.00 0.00 0.00 70 1004.8
20260901004230 88 336 0.0 0.0 0.00 0.00 0.00 69 1004.7
20260901004129 88 336 0.0 0.0 0.00 0.00 0.00 69 1004.8
20260901004030 88 336 0.0 0.0 0.00 0.00 0.00 69 1004.7
20260901003931 88 336 0.0 0.0 0.00 0.00 0.00 69 1004.8
20260901003829 88 336 0.0 0.0 0.00 0.00 0.00 69 1004.8
20260901003729 88 336 0.0 0.0 0.00 0.00 0.00 69 1004.8
20260901003629 88 336 0.0 0.0 0.00 0.00 0.00 69 1004.8
20260901003530 88 336 0.0 0.0 0.00 0.00 0.00 69 1004.8
20260901003429 88 336 0.0 0.0 0.00 0.00 0.00 69 1004.8
20260901003331 88 336 0.0 0.0 0.00 0.00 0.00 69 1005.0
20260901003231 88 336 0.0 0.0 0.00 0.00 0.00 69 1004.9
20260901003130 88 336 0.0 0.0 0.00 0.00 0.00 69 1005.0
20260901003029 88 336 0.0 0.0 0.00 0.00 0.00 69 1004.9
20260901002929 89 336 0.0 0.0 0.00 0.00 0.00 69 1004.9
20260901002830 89 336 0.0 0.0 0.00 0.00 0.00 68 1004.9
20260901002729 89 336 0.0 0.0 0.00 0.00 0.00 68 1004.9
20260901002630 89 336 0.0 0.0 0.00 0.00 0.00 68 1004.9
20260901002529 89 336 0.0 0.0 0.00 0.00 0.00 68 1004.9
20260901002429 89 336 0.0 0.0 0.00 0.00 0.00 68 1005.0
20260901002330 89 336 0.0 0.0 0.00 0.00 0.00 68 1004.9
20260901002230 89 336 0.0 0.0 0.00 0.00 0.00 68 1005.0
20260901002129 89 336 0.0 0.0 0.00 0.00 0.00 68 1005.0
20260901002029 89 336 0.0 0.0 0.00 0.00 0.00 68 1004.9
20260901001929 89 336 0.0 0.0 0.00 0.00 0.00 68 1005.0
20260901001831 89 336 0.0 0.0 0.00 0.00 0.00 67 1005.0
20260901001728 89 336 0.0 0.0 0.00 0.00 0.00 67 1005.0
20260901001630 89 336 0.0 0.0 0.00 0.00 0.00 67 1004.9
20260901001530 89 336 0.0 0.0 0.00 0.00 0.00 67 1005.0
20260901001429 89 336 0.0 0.0 0.00 0.00 0.00 67 1004.9
20260901001330 89 336 0.0 1.0 0.00 0.00 0.00 67 1004.9
20260901001230 89 336 0.0 1.0 0.00 0.00 0.00 67 1005.0
20260901001129 89 336 0.0 1.0 0.00 0.00 0.00 67 1005.0
20260901001029 89 336 0.0 1.0 0.00 0.00 0.00 67 1005.0
20260901000929 89 336 0.0 1.0 0.00 0.00 0.00 67 1005.0
20260901000829 89 336 0.0 1.0 0.00 0.00 0.00 67 1005.1
20260901000730 89 336 0.0 1.0 0.00 0.00 0.00 67 1005.1
20260901000630 89 336 0.0 1.0 0.00 0.00 0.00 67 1005.0
20260901000530 89 336 0.0 1.0 0.00 0.00 0.00 67 1005.1
20260901000430 89 336 0.0 1.0 0.00 0.00 0.00 67 1005.1
20260901000330 89 336 0.0 1.0 0.00 0.00 0.00 66 1005.1
20260901000228 90 336 0.0 1.0 0.00 0.00 0.00 66 1005.1
20260901000130 90 336 0.0 1.0 0.00 0.00 0.00 66 1005.2
20260901000029 90 305 0.0 1.0 0.00 0.00 0.00 66 1005.2
20260831235928 90 305 0.0 1.0 0.00 0.00 0.00 66 1005.2
20260831235830 90 305 0.0 1.0 0.00 0.00 0.00 66 1005.2
20260831235729 90 305 0.0 1.0 0.00 0.00 0.00 66 1005.1
20260831235630 90 305 0.0 1.0 0.00 0.00 0.00 65 1005.2
20260831235530 90 305 0.0 1.0 0.00 0.00 0.00 65 1005.2
20260831235429 90 305 0.0 1.0 0.00 0.00 0.00 63 1005.2
20260831235329 90 305 0.0 1.0 0.00 0.00 0.00 63 1005.2
20260831235228 90 305 1.0 1.0 0.00 0.00 0.00 63 1005.2
20260831235127 91 305 0.0 1.0 0.00 0.00 0.00 63 1005.2
20260831235029 91 305 0.0 1.0 0.00 0.00 0.00 64 1005.2
20260831234928 91 305 0.0 1.0 0.00 0.00 0.00 64 1005.2
20260831234828 91 305 0.0 1.0 0.00 0.00 0.00 63 1005.2
20260831234728 91 305 0.0 0.0 0.00 0.00 0.00 63 1005.1
20260831234628 91 305 0.0 0.0 0.00 0.00 0.00 64 1005.2
20260831234528 91 305 0.0 0.0 0.00 0.00 0.00 64 1005.1
20260831234430 91 305 0.0 0.0 0.00 0.00 0.00 64 1005.1
20260831234329 91 305 0.0 0.0 0.00 0.00 0.00 63 1005.1
20260831234230 91 305 0.0 2.0 0.00 0.00 0.00 63 1005.1
20260831234129 91 305 0.0 2.0 0.00 0.00 0.00 63 1005.1
20260831234028 91 305 0.0 2.0 0.00 0.00 0.00 63 1005.1
20260831233929 91 305 0.0 2.0 0.00 0.00 0.00 63 1005.1
20260831233829 92 305 0.0 2.0 0.00 0.00 0.00 63 1005.1
20260831233728 92 305 0.0 2.0 0.00 0.00 0.00 63 1005.0
20260831233628 92 305 0.0 2.0 0.00 0.00 0.00 63 1005.0
20260831233528 92 305 0.0 2.0 0.00 0.00 0.00 63 1005.1
20260831233429 92 305 0.0 2.0 0.00 0.00 0.00 63 1005.1
20260831233329 92 305 0.0 2.0 0.00 0.00 0.00 63 1005.1
20260831233229 92 210 0.0 1.0 0.00 0.00 0.00 63 1005.2
20260831233128 92 213 0.0 1.0 0.00 0.00 0.00 63 1005.2
20260831233027 92 213 0.0 1.0 0.00 0.00 0.00 63 1005.2
20260831232930 92 213 0.0 1.0 0.00 0.00 0.00 63 1005.1
20260831232827 92 213 0.0 1.0 0.00 0.00 0.00 63 1005.2
20260831232727 92 213 0.0 1.0 0.00 0.00 0.00 63 1005.2
20260831232628 92 213 0.0 1.0 0.00 0.00 0.00 63 1005.1
20260831232528 92 213 0.0 1.0 0.00 0.00 0.00 63 1005.1
20260831232427 92 213 0.0 1.0 0.00 0.00 0.00 63 1005.1
20260831232328 92 213 0.0 1.0 0.00 0.00 0.00 63 1005.1
20260831232227 92 213 0.0 1.0 0.00 0.00 0.00 63 1005.1
20260831232127 92 213 0.0 2.0 0.00 0.00 0.00 62 1005.1
20260831232027 92 213 0.0 2.0 0.00 0.00 0.00 62 1005.1
20260831231928 92 213 0.0 2.0 0.00 0.00 0.00 62 1005.0
20260831231829 92 213 0.0 2.0 0.00 0.00 0.00 62 1005.1
20260831231727 92 213 0.0 2.0 0.00 0.00 0.00 62 1005.1
20260831231627 92 213 0.0 3.0 0.00 0.00 0.00 63 1005.1
20260831231530 92 49 0.0 3.0 0.00 0.00 0.00 62 1005.2
20260831231427 92 49 0.0 3.0 0.00 0.00 0.00 62 1005.1
20260831231327 92 48 0.0 3.0 0.00 0.00 0.00 62 1005.1
20260831231229 92 48 0.0 3.0 0.00 0.00 0.00 62 1005.1
20260831231128 92 274 0.0 3.0 0.00 0.00 0.00 62 1004.9
20260831231027 92 274 0.0 3.0 0.00 0.00 0.00 62 1005.0
20260831230928 92 274 0.0 3.0 0.00 0.00 0.00 63 1005.0
20260831230827 92 274 1.0 3.0 0.00 0.00 0.00 63 1004.9
20260831230727 92 274 1.0 3.0 0.00 0.00 0.00 63 1004.9
20260831230627 92 244 0.0 3.0 0.00 0.00 0.00 63 1004.9
20260831230529 92 244 0.0 3.0 0.00 0.00 0.00 64 1004.9
20260831230427 92 244 0.0 3.0 0.00 0.00 0.00 64 1004.9
20260831230328 92 172 0.0 2.0 0.00 0.00 0.00 64 1004.8
20260831230229 92 233 0.0 3.0 0.00 0.00 0.00 64 1004.8
20260831230127 92 231 0.0 3.0 0.00 0.00 0.00 64 1004.8
20260831230029 92 231 1.0 3.0 0.00 0.00 0.00 64 1004.8
20260831225927 92 231 0.0 3.0 0.00 0.00 0.00 64 1004.8
20260831225828 92 231 0.0 3.0 0.00 0.00 0.00 65 1004.9
20260831225728 92 231 0.0 3.0 0.00 0.00 0.00 65 1004.8
20260831225628 92 231 0.0 3.0 0.00 0.00 0.00 64 1004.9
20260831225528 92 231 0.0 3.0 0.00 0.00 0.00 64 1004.9
20260831225429 92 231 0.0 3.0 0.00 0.00 0.00 64 1004.9
20260831225327 92 1 0.0 3.0 0.00 0.00 0.00 64 1004.9
20260831225227 92 237 0.0 3.0 0.00 0.00 0.00 64 1004.9
20260831225127 92 237 0.0 3.0 0.00 0.00 0.00 64 1004.9
20260831225027 92 237 0.0 3.0 0.00 0.00 0.00 64 1004.9
20260831224929 92 237 0.0 3.0 0.00 0.00 0.00 64 1004.9
20260831224827 92 237 0.0 3.0 0.00 0.00 0.00 63 1004.9
20260831224727 92 237 0.0 3.0 0.00 0.00 0.00 63 1004.9
20260831224630 92 237 1.0 3.0 0.00 0.00 0.00 63 1004.9
20260831224529 92 238 1.0 3.0 0.00 0.00 0.00 63 1005.0
20260831224429 92 257 0.0 3.0 0.00 0.00 0.00 63 1004.9
20260831224329 92 257 0.0 3.0 0.00 0.00 0.00 63 1005.0
20260831224228 92 257 1.0 3.0 0.00 0.00 0.00 63 1004.9
20260831224120 92 255 1.0 3.0 0.00 0.00 0.00 63 1005.0
20260831224019 92 272 0.0 3.0 0.00 0.00 0.00 63 1005.0
20260831223918 92 0 0.0 2.0 0.00 0.00 0.00 63 1005.0
20260831223820 92 0 0.0 2.0 0.00 0.00 0.00 63 1005.0
20260831223720 92 0 0.0 2.0 0.00 0.00 0.00 63 1005.0
20260831223615 93 0 0.0 2.0 0.00 0.00 0.00 63 1005.0
20260831223507 93 0 0.0 2.0 0.00 0.00 0.00 62 1005.1
20260831223407 93 183 0.0 3.0 0.00 0.00 0.00 62 1005.1
20260831223304 93 183 0.0 3.0 0.00 0.00 0.00 62 1005.0
20260831223204 93 172 0.0 3.0 0.00 0.00 0.00 62 1005.0
20260831223103 93 172 0.0 3.0 0.00 0.00 0.00 62 1005.1
20260831223003 93 172 0.0 3.0 0.00 0.00 0.00 62 1005.0